Time,TemperatureF,DewpointF,PressureIn,WindDirection,WindDirectionDegrees,WindSpeedMPH,WindSpeedGustMPH,Humidity,HourlyPrecipIn,Conditions,Clouds,dailyrainin,SoftwareType,DateUTC
2013-01-19 00:00:00,37.8,19.8,29.91,WSW,248,0.2,2.9,48,0.00,,,0.00,WUHU216HW,2013-01-19 07:00:00,
2013-01-19 00:02:00,37.8,19.8,29.91,WSW,248,0.4,2.9,48,0.00,,,0.00,WUHU216HW,2013-01-19 07:02:00,
2013-01-19 00:04:00,37.4,19.4,29.91,SW,225,1.1,2.9,48,0.00,,,0.00,WUHU216HW,2013-01-19 07:04:00,
2013-01-19 00:05:00,37.4,19.4,29.91,SW,225,0.4,2.9,48,0.00,,,0.00,WUHU216HW,2013-01-19 07:05:00,
2013-01-19 00:07:00,37.3,19.4,29.91,WNW,293,0.4,2.9,48,0.00,,,0.00,WUHU216HW,2013-01-19 07:07:00,
2013-01-19 00:09:00,37.1,19.2,29.91,NW,315,1.6,1.6,48,0.00,,,0.00,WUHU216HW,2013-01-19 07:09:00,
2013-01-19 00:10:00,36.9,19.0,29.91,WNW,293,1.6,1.6,48,0.00,,,0.00,WUHU216HW,2013-01-19 07:10:00,
2013-01-19 00:12:00,36.7,19.4,29.91,WNW,293,2.9,2.9,49,0.00,,,0.00,WUHU216HW,2013-01-19 07:12:00,
2013-01-19 00:14:00,36.7,19.4,29.91,WNW,293,3.8,4.0,49,0.00,,,0.00,WUHU216HW,2013-01-19 07:14:00,
2013-01-19 00:15:00,36.5,19.2,29.91,West,270,4.9,4.9,49,0.00,,,0.00,WUHU216HW,2013-01-19 07:15:00,
2013-01-19 00:17:00,36.5,19.2,29.91,WSW,248,5.4,5.4,49,0.00,,,0.00,WUHU216HW,2013-01-19 07:17:00,
2013-01-19 00:19:00,36.7,19.4,29.91,West,270,1.3,5.4,49,0.00,,,0.00,WUHU216HW,2013-01-19 07:19:00,
2013-01-19 00:20:00,36.7,19.4,29.91,West,270,1.8,5.4,49,0.00,,,0.00,WUHU216HW,2013-01-19 07:20:00,
2013-01-19 00:22:00,36.7,19.4,29.91,West,270,3.1,5.4,49,0.00,,,0.00,WUHU216HW,2013-01-19 07:22:00,
2013-01-19 00:24:00,36.9,19.5,29.91,West,270,2.5,5.4,49,0.00,,,0.00,WUHU216HW,2013-01-19 07:24:00,
2013-01-19 00:25:00,36.9,19.5,29.91,WSW,248,2.5,5.4,49,0.00,,,0.00,WUHU216HW,2013-01-19 07:25:00,
2013-01-19 00:26:00,36.9,19.5,29.91,WSW,248,2.5,5.4,49,0.00,,,0.00,WUHU216HW,2013-01-19 07:26:00,
2013-01-19 00:27:00,36.9,19.5,29.91,WSW,248,0.4,3.4,49,0.00,,,0.00,WUHU216HW,2013-01-19 07:27:00,
2013-01-19 00:29:00,37.1,19.7,29.91,SW,225,2.5,3.4,49,0.00,,,0.00,WUHU216HW,2013-01-19 07:29:00,
2013-01-19 00:30:00,37.1,19.7,29.91,WSW,248,1.8,3.4,49,0.00,,,0.00,WUHU216HW,2013-01-19 07:30:00,
2013-01-19 00:31:00,37.1,19.7,29.91,WSW,248,1.8,3.4,49,0.00,,,0.00,WUHU216HW,2013-01-19 07:31:00,
2013-01-19 00:32:00,37.1,19.7,29.91,WSW,248,1.8,3.4,49,0.00,,,0.00,WUHU216HW,2013-01-19 07:32:00,
2013-01-19 00:35:00,37.1,19.7,29.91,WSW,248,2.9,3.1,49,0.00,,,0.00,WUHU216HW,2013-01-19 07:35:00,
2013-01-19 00:36:00,36.9,19.5,29.91,West,270,1.8,3.1,49,0.00,,,0.00,WUHU216HW,2013-01-19 07:36:00,
2013-01-19 00:37:00,36.9,19.5,29.91,WSW,248,1.3,3.1,49,0.00,,,0.00,WUHU216HW,2013-01-19 07:37:00,
2013-01-19 00:40:00,36.7,19.4,29.91,WSW,248,2.2,3.1,49,0.00,,,0.00,WUHU216HW,2013-01-19 07:40:00,
2013-01-19 00:41:00,36.7,19.4,29.91,WSW,248,0.9,3.1,49,0.00,,,0.00,WUHU216HW,2013-01-19 07:41:00,
2013-01-19 00:42:00,36.7,19.9,29.91,WSW,248,1.6,3.1,50,0.00,,,0.00,WUHU216HW,2013-01-19 07:42:00,
2013-01-19 00:45:00,36.5,19.7,29.91,WSW,248,0.9,2.5,50,0.00,,,0.00,WUHU216HW,2013-01-19 07:45:00,
2013-01-19 00:47:00,36.4,19.5,29.92,West,270,1.1,2.5,50,0.00,,,0.00,WUHU216HW,2013-01-19 07:47:00,
2013-01-19 00:48:00,36.4,19.5,29.91,WNW,293,1.1,2.5,50,0.00,,,0.00,WUHU216HW,2013-01-19 07:48:00,
2013-01-19 00:50:00,36.4,19.5,29.91,West,270,1.3,2.5,50,0.00,,,0.00,WUHU216HW,2013-01-19 07:50:00,
2013-01-19 00:52:00,36.4,19.5,29.92,NW,315,1.6,1.6,50,0.00,,,0.00,WUHU216HW,2013-01-19 07:52:00,
2013-01-19 00:54:00,36.4,19.5,29.92,West,270,1.1,2.5,50,0.00,,,0.00,WUHU216HW,2013-01-19 07:54:00,
2013-01-19 00:55:00,36.4,19.5,29.92,West,270,1.8,2.5,50,0.00,,,0.00,WUHU216HW,2013-01-19 07:55:00,
2013-01-19 00:57:00,36.4,19.5,29.92,WNW,293,1.1,2.5,50,0.00,,,0.00,WUHU216HW,2013-01-19 07:57:00,
2013-01-19 00:59:00,36.5,19.7,29.92,NW,315,0.7,2.5,50,0.00,,,0.00,WUHU216HW,2013-01-19 07:59:00,
2013-01-19 01:00:00,36.5,19.2,29.93,North,0,0.7,2.5,49,0.00,,,0.00,WUHU216HW,2013-01-19 08:00:00,
2013-01-19 01:02:00,36.7,19.4,29.93,WSW,248,0.2,1.8,49,0.00,,,0.00,WUHU216HW,2013-01-19 08:02:00,
2013-01-19 01:04:00,36.7,19.4,29.93,WSW,248,0.7,1.8,49,0.00,,,0.00,WUHU216HW,2013-01-19 08:04:00,
2013-01-19 01:05:00,36.7,19.4,29.93,WSW,248,1.1,1.1,49,0.00,,,0.00,WUHU216HW,2013-01-19 08:05:00,
2013-01-19 01:07:00,36.7,19.4,29.93,SW,225,1.3,1.3,49,0.00,,,0.00,WUHU216HW,2013-01-19 08:07:00,
2013-01-19 01:09:00,36.5,19.2,29.93,West,270,1.8,2.0,49,0.00,,,0.00,WUHU216HW,2013-01-19 08:09:00,
2013-01-19 01:11:00,36.4,19.0,29.93,WSW,248,1.1,2.0,49,0.00,,,0.00,WUHU216HW,2013-01-19 08:11:00,
2013-01-19 01:13:00,36.4,19.0,29.93,WSW,248,1.3,2.0,49,0.00,,,0.00,WUHU216HW,2013-01-19 08:13:00,
2013-01-19 01:14:00,36.2,18.9,29.93,SW,225,1.8,2.0,49,0.00,,,0.00,WUHU216HW,2013-01-19 08:14:00,
2013-01-19 01:16:00,36.0,18.7,29.93,SW,225,0.4,2.0,49,0.00,,,0.00,WUHU216HW,2013-01-19 08:16:00,
2013-01-19 01:18:00,36.0,18.7,29.93,SW,225,1.3,2.0,49,0.00,,,0.00,WUHU216HW,2013-01-19 08:18:00,
2013-01-19 01:19:00,35.8,18.5,29.93,SW,225,5.8,5.8,49,0.00,,,0.00,WUHU216HW,2013-01-19 08:19:00,
2013-01-19 01:21:00,35.8,18.5,29.93,WSW,248,4.0,5.8,49,0.00,,,0.00,WUHU216HW,2013-01-19 08:21:00,
2013-01-19 01:22:00,36.0,18.7,29.93,North,0,2.9,5.8,49,0.00,,,0.00,WUHU216HW,2013-01-19 08:22:00,
2013-01-19 01:23:00,36.0,18.7,29.93,North,0,2.9,5.8,49,0.00,,,0.00,WUHU216HW,2013-01-19 08:23:00,
2013-01-19 01:24:00,36.4,19.0,29.93,West,270,1.8,5.8,49,0.00,,,0.00,WUHU216HW,2013-01-19 08:24:00,
2013-01-19 01:26:00,36.7,19.4,29.93,West,270,0.4,5.8,49,0.00,,,0.00,WUHU216HW,2013-01-19 08:26:00,
2013-01-19 01:27:00,36.7,19.4,29.93,West,270,3.6,5.8,49,0.00,,,0.00,WUHU216HW,2013-01-19 08:27:00,
2013-01-19 01:29:00,37.1,19.2,29.93,NNW,338,2.2,4.0,48,0.00,,,0.00,WUHU216HW,2013-01-19 08:29:00,
2013-01-19 01:31:00,37.3,19.4,29.93,NNW,338,6.3,6.3,48,0.00,,,0.00,WUHU216HW,2013-01-19 08:31:00,
2013-01-19 01:32:00,37.4,19.0,29.93,West,270,4.0,6.3,47,0.00,,,0.00,WUHU216HW,2013-01-19 08:32:00,
2013-01-19 01:35:00,38.2,19.1,29.93,North,0,1.3,6.5,46,0.00,,,0.00,WUHU216HW,2013-01-19 08:35:00,
2013-01-19 01:37:00,38.7,19.5,29.93,West,270,8.7,8.7,46,0.00,,,0.00,WUHU216HW,2013-01-19 08:37:00,
2013-01-19 01:38:00,39.1,18.8,29.93,NW,315,5.4,8.7,44,0.00,,,0.00,WUHU216HW,2013-01-19 08:38:00,
2013-01-19 01:40:00,39.8,20.0,29.93,WSW,248,1.8,8.7,45,0.00,,,0.00,WUHU216HW,2013-01-19 08:40:00,
2013-01-19 01:42:00,40.1,20.3,29.93,NNW,338,2.9,8.7,45,0.00,,,0.00,WUHU216HW,2013-01-19 08:42:00,
2013-01-19 01:43:00,40.3,20.5,29.93,SW,225,2.5,8.7,45,0.00,,,0.00,WUHU216HW,2013-01-19 08:43:00,
2013-01-19 01:45:00,40.5,20.7,29.93,West,270,1.1,8.7,45,0.00,,,0.00,WUHU216HW,2013-01-19 08:45:00,
2013-01-19 01:47:00,40.5,20.7,29.93,WSW,248,2.0,5.4,45,0.00,,,0.00,WUHU216HW,2013-01-19 08:47:00,
2013-01-19 01:48:00,40.5,20.7,29.94,SW,225,2.5,5.4,45,0.00,,,0.00,WUHU216HW,2013-01-19 08:48:00,
2013-01-19 01:50:00,40.3,20.5,29.94,West,270,1.1,3.1,45,0.00,,,0.00,WUHU216HW,2013-01-19 08:50:00,
2013-01-19 01:52:00,40.0,20.2,29.94,WSW,248,2.2,3.1,45,0.00,,,0.00,WUHU216HW,2013-01-19 08:52:00,
2013-01-19 01:53:00,40.0,20.2,29.94,WSW,248,2.2,3.1,45,0.00,,,0.00,WUHU216HW,2013-01-19 08:53:00,
2013-01-19 01:55:00,39.6,19.9,29.94,WSW,248,1.8,3.1,45,0.00,,,0.00,WUHU216HW,2013-01-19 08:55:00,
2013-01-19 01:57:00,39.4,19.7,29.94,SSW,203,2.9,3.1,45,0.00,,,0.00,WUHU216HW,2013-01-19 08:57:00,
2013-01-19 01:58:00,39.4,19.7,29.94,SSW,203,2.9,3.1,45,0.00,,,0.00,WUHU216HW,2013-01-19 08:58:00,
2013-01-19 02:00:00,39.1,19.4,29.94,WNW,293,3.4,3.4,45,0.00,,,0.00,WUHU216HW,2013-01-19 09:00:00,
2013-01-19 02:02:00,38.9,19.2,29.94,West,270,0.9,3.4,45,0.00,,,0.00,WUHU216HW,2013-01-19 09:02:00,
2013-01-19 02:03:00,38.7,19.1,29.95,West,270,6.3,6.3,45,0.00,,,0.00,WUHU216HW,2013-01-19 09:03:00,
2013-01-19 02:05:00,38.7,19.1,29.95,WSW,248,2.0,6.3,45,0.00,,,0.00,WUHU216HW,2013-01-19 09:05:00,
2013-01-19 02:07:00,38.7,19.1,29.95,WSW,248,1.8,6.3,45,0.00,,,0.00,WUHU216HW,2013-01-19 09:07:00,
2013-01-19 02:08:00,38.9,19.2,29.95,WSW,248,1.8,6.3,45,0.00,,,0.00,WUHU216HW,2013-01-19 09:08:00,
2013-01-19 02:11:00,38.9,19.2,29.95,WSW,248,1.8,6.3,45,0.00,,,0.00,WUHU216HW,2013-01-19 09:11:00,
2013-01-19 02:12:00,38.9,19.2,29.95,WSW,248,2.2,6.3,45,0.00,,,0.00,WUHU216HW,2013-01-19 09:12:00,
2013-01-19 02:13:00,38.9,19.2,29.95,SW,225,2.2,4.7,45,0.00,,,0.00,WUHU216HW,2013-01-19 09:13:00,
2013-01-19 02:14:00,38.9,19.2,29.95,SW,225,2.2,4.7,45,0.00,,,0.00,WUHU216HW,2013-01-19 09:14:00,
2013-01-19 02:16:00,38.7,19.1,29.95,WSW,248,1.8,2.2,45,0.00,,,0.00,WUHU216HW,2013-01-19 09:16:00,
2013-01-19 02:17:00,38.7,19.1,29.95,WSW,248,1.8,2.2,45,0.00,,,0.00,WUHU216HW,2013-01-19 09:17:00,
2013-01-19 02:19:00,38.5,18.9,29.95,SW,225,1.8,2.2,45,0.00,,,0.00,WUHU216HW,2013-01-19 09:19:00,
2013-01-19 02:21:00,38.5,18.9,29.95,SSW,203,1.1,2.2,45,0.00,,,0.00,WUHU216HW,2013-01-19 09:21:00,
2013-01-19 02:23:00,38.3,18.7,29.95,SW,225,2.7,2.7,45,0.00,,,0.00,WUHU216HW,2013-01-19 09:23:00,
2013-01-19 02:24:00,38.2,18.5,29.95,SSW,203,1.8,2.7,45,0.00,,,0.00,WUHU216HW,2013-01-19 09:24:00,
2013-01-19 02:25:00,38.0,18.4,29.95,SW,225,2.5,2.7,45,0.00,,,0.00,WUHU216HW,2013-01-19 09:25:00,
2013-01-19 02:27:00,37.8,18.3,29.96,SW,225,1.3,2.7,45,0.00,,,0.00,WUHU216HW,2013-01-19 09:27:00,
2013-01-19 02:28:00,37.8,18.7,29.95,SW,225,1.8,2.7,46,0.00,,,0.00,WUHU216HW,2013-01-19 09:28:00,
2013-01-19 02:29:00,37.6,18.6,29.96,SW,225,1.6,2.7,46,0.00,,,0.00,WUHU216HW,2013-01-19 09:29:00,
2013-01-19 02:30:00,37.4,18.5,29.96,SW,225,2.2,2.7,46,0.00,,,0.00,WUHU216HW,2013-01-19 09:30:00,
2013-01-19 02:32:00,37.4,18.5,29.96,SW,225,1.8,2.5,46,0.00,,,0.00,WUHU216HW,2013-01-19 09:32:00,
2013-01-19 02:33:00,37.3,18.3,29.96,SW,225,1.1,2.5,46,0.00,,,0.00,WUHU216HW,2013-01-19 09:33:00,
2013-01-19 02:35:00,37.1,18.1,29.96,SW,225,1.1,2.5,46,0.00,,,0.00,WUHU216HW,2013-01-19 09:35:00,
2013-01-19 02:37:00,37.1,18.1,29.96,SSW,203,1.8,2.2,46,0.00,,,0.00,WUHU216HW,2013-01-19 09:37:00,
2013-01-19 02:38:00,36.9,17.9,29.96,SW,225,0.9,2.2,46,0.00,,,0.00,WUHU216HW,2013-01-19 09:38:00,
2013-01-19 02:40:00,36.7,17.8,29.96,SW,225,1.1,1.8,46,0.00,,,0.00,WUHU216HW,2013-01-19 09:40:00,
2013-01-19 02:42:00,36.5,17.7,29.96,SW,225,0.7,2.2,46,0.00,,,0.00,WUHU216HW,2013-01-19 09:42:00,
2013-01-19 02:43:00,36.5,17.7,29.96,SW,225,1.1,2.2,46,0.00,,,0.00,WUHU216HW,2013-01-19 09:43:00,
2013-01-19 02:45:00,36.4,18.0,29.96,SW,225,0.4,2.2,47,0.00,,,0.00,WUHU216HW,2013-01-19 09:45:00,
2013-01-19 02:46:00,36.4,18.0,29.96,SW,225,0.4,2.2,47,0.00,,,0.00,WUHU216HW,2013-01-19 09:46:00,
2013-01-19 02:47:00,36.4,18.0,29.96,SW,225,1.1,2.2,47,0.00,,,0.00,WUHU216HW,2013-01-19 09:47:00,
2013-01-19 02:48:00,36.4,18.0,29.96,SW,225,1.3,2.2,47,0.00,,,0.00,WUHU216HW,2013-01-19 09:48:00,
2013-01-19 02:50:00,36.2,17.8,29.96,SSW,203,1.1,1.8,47,0.00,,,0.00,WUHU216HW,2013-01-19 09:50:00,
2013-01-19 02:51:00,36.2,17.8,29.96,SSW,203,1.1,1.8,47,0.00,,,0.00,WUHU216HW,2013-01-19 09:51:00,
2013-01-19 02:52:00,36.0,17.6,29.96,SSW,203,0.9,1.8,47,0.00,,,0.00,WUHU216HW,2013-01-19 09:52:00,
2013-01-19 02:53:00,36.0,17.6,29.96,SSW,203,0.7,1.8,47,0.00,,,0.00,WUHU216HW,2013-01-19 09:53:00,
2013-01-19 02:55:00,36.0,17.6,29.96,SSW,203,0.0,1.8,47,0.00,,,0.00,WUHU216HW,2013-01-19 09:55:00,
2013-01-19 02:57:00,35.8,17.5,29.96,SSW,203,0.4,1.8,47,0.00,,,0.00,WUHU216HW,2013-01-19 09:57:00,
2013-01-19 02:58:00,35.8,17.5,29.96,SSW,203,0.4,1.8,47,0.00,,,0.00,WUHU216HW,2013-01-19 09:58:00,
2013-01-19 03:01:00,35.6,17.4,29.96,SW,225,1.1,1.1,47,0.00,,,0.00,WUHU216HW,2013-01-19 10:01:00,
2013-01-19 03:02:00,35.6,17.4,29.96,SSW,203,0.7,1.1,47,0.00,,,0.00,WUHU216HW,2013-01-19 10:02:00,
2013-01-19 03:04:00,35.6,17.4,29.96,SSW,203,2.0,2.0,47,0.00,,,0.00,WUHU216HW,2013-01-19 10:04:00,
2013-01-19 03:06:00,35.5,17.2,29.96,SSW,203,1.8,2.0,47,0.00,,,0.00,WUHU216HW,2013-01-19 10:06:00,
2013-01-19 03:07:00,35.5,17.2,29.96,SW,225,1.6,2.0,47,0.00,,,0.00,WUHU216HW,2013-01-19 10:07:00,
2013-01-19 03:09:00,35.3,17.5,29.96,SW,225,1.3,2.0,48,0.00,,,0.00,WUHU216HW,2013-01-19 10:09:00,
2013-01-19 03:11:00,35.1,17.4,29.96,SW,225,1.6,2.0,48,0.00,,,0.00,WUHU216HW,2013-01-19 10:11:00,
2013-01-19 03:13:00,35.1,17.4,29.96,SW,225,0.9,2.0,48,0.00,,,0.00,WUHU216HW,2013-01-19 10:13:00,
2013-01-19 03:14:00,34.9,17.2,29.96,SW,225,2.2,2.2,48,0.00,,,0.00,WUHU216HW,2013-01-19 10:14:00,
2013-01-19 03:16:00,34.9,17.2,29.96,SSW,203,0.7,2.2,48,0.00,,,0.00,WUHU216HW,2013-01-19 10:16:00,
2013-01-19 03:18:00,34.9,17.2,29.96,SSW,203,1.1,2.2,48,0.00,,,0.00,WUHU216HW,2013-01-19 10:18:00,
2013-01-19 03:19:00,34.7,17.0,29.96,SSW,203,1.1,2.2,48,0.00,,,0.00,WUHU216HW,2013-01-19 10:19:00,
2013-01-19 03:21:00,34.7,17.0,29.96,SSW,203,1.1,2.2,48,0.00,,,0.00,WUHU216HW,2013-01-19 10:21:00,
2013-01-19 03:23:00,34.6,17.3,29.96,SW,225,1.3,2.2,49,0.00,,,0.00,WUHU216HW,2013-01-19 10:23:00,
2013-01-19 03:24:00,34.6,17.3,29.96,SW,225,1.3,2.0,49,0.00,,,0.00,WUHU216HW,2013-01-19 10:24:00,
2013-01-19 03:26:00,34.6,17.3,29.96,SSW,203,0.7,2.0,49,0.00,,,0.00,WUHU216HW,2013-01-19 10:26:00,
2013-01-19 03:28:00,34.4,17.1,29.96,SSW,203,1.3,1.3,49,0.00,,,0.00,WUHU216HW,2013-01-19 10:28:00,
2013-01-19 03:29:00,34.4,17.1,29.96,SW,225,1.8,1.8,49,0.00,,,0.00,WUHU216HW,2013-01-19 10:29:00,
2013-01-19 03:31:00,34.4,17.1,29.96,SW,225,0.7,1.8,49,0.00,,,0.00,WUHU216HW,2013-01-19 10:31:00,
2013-01-19 03:33:00,34.4,17.1,29.96,WSW,248,1.8,1.8,49,0.00,,,0.00,WUHU216HW,2013-01-19 10:33:00,
2013-01-19 03:34:00,34.4,17.1,29.96,WSW,248,1.8,1.8,49,0.00,,,0.00,WUHU216HW,2013-01-19 10:34:00,
2013-01-19 03:36:00,34.4,17.1,29.97,West,270,1.8,2.7,49,0.00,,,0.00,WUHU216HW,2013-01-19 10:36:00,
2013-01-19 03:38:00,34.6,17.3,29.96,West,270,0.9,2.7,49,0.00,,,0.00,WUHU216HW,2013-01-19 10:38:00,
2013-01-19 03:39:00,34.6,17.3,29.96,West,270,1.1,2.7,49,0.00,,,0.00,WUHU216HW,2013-01-19 10:39:00,
2013-01-19 03:40:00,34.6,17.3,29.96,West,270,1.1,2.7,49,0.00,,,0.00,WUHU216HW,2013-01-19 10:40:00,
2013-01-19 03:41:00,34.6,17.3,29.96,West,270,0.9,2.7,49,0.00,,,0.00,WUHU216HW,2013-01-19 10:41:00,
2013-01-19 03:43:00,34.6,17.3,29.97,WSW,248,1.1,2.7,49,0.00,,,0.00,WUHU216HW,2013-01-19 10:43:00,
2013-01-19 03:45:00,34.6,17.3,29.97,NNW,338,0.4,2.7,49,0.00,,,0.00,WUHU216HW,2013-01-19 10:45:00,
2013-01-19 03:46:00,34.6,17.3,29.97,WSW,248,0.9,1.8,49,0.00,,,0.00,WUHU216HW,2013-01-19 10:46:00,
2013-01-19 03:48:00,34.6,17.3,29.97,WNW,293,1.3,1.8,49,0.00,,,0.00,WUHU216HW,2013-01-19 10:48:00,
2013-01-19 03:50:00,34.6,17.3,29.97,WNW,293,1.3,1.8,49,0.00,,,0.00,WUHU216HW,2013-01-19 10:50:00,
2013-01-19 03:52:00,34.6,17.3,29.97,WNW,293,0.9,1.8,49,0.00,,,0.00,WUHU216HW,2013-01-19 10:52:00,
2013-01-19 03:53:00,34.6,17.3,29.97,NW,315,2.0,2.0,49,0.00,,,0.00,WUHU216HW,2013-01-19 10:53:00,
2013-01-19 03:55:00,34.6,17.3,29.97,NNW,338,1.3,2.0,49,0.00,,,0.00,WUHU216HW,2013-01-19 10:55:00,
2013-01-19 03:57:00,34.7,17.5,29.97,WNW,293,2.9,3.8,49,0.00,,,0.00,WUHU216HW,2013-01-19 10:57:00,
2013-01-19 03:58:00,34.7,17.5,29.97,WNW,293,1.8,3.8,49,0.00,,,0.00,WUHU216HW,2013-01-19 10:58:00,
2013-01-19 04:00:00,34.9,17.6,29.97,NNW,338,1.6,3.8,49,0.00,,,0.00,WUHU216HW,2013-01-19 11:00:00,
2013-01-19 04:02:00,35.3,18.0,29.97,WNW,293,2.2,3.8,49,0.00,,,0.00,WUHU216HW,2013-01-19 11:02:00,
2013-01-19 04:04:00,35.6,17.8,29.97,WSW,248,3.1,3.8,48,0.00,,,0.00,WUHU216HW,2013-01-19 11:04:00,
2013-01-19 04:05:00,35.6,17.8,29.98,NW,315,2.0,3.6,48,0.00,,,0.00,WUHU216HW,2013-01-19 11:05:00,
2013-01-19 04:06:00,35.6,17.8,29.98,NW,315,2.0,3.6,48,0.00,,,0.00,WUHU216HW,2013-01-19 11:06:00,
2013-01-19 04:08:00,36.2,17.8,29.97,NNW,338,2.0,3.1,47,0.00,,,0.00,WUHU216HW,2013-01-19 11:08:00,
2013-01-19 04:09:00,36.5,18.2,29.97,WNW,293,1.8,3.4,47,0.00,,,0.00,WUHU216HW,2013-01-19 11:09:00,
2013-01-19 04:10:00,36.7,18.3,29.97,NW,315,4.0,4.0,47,0.00,,,0.00,WUHU216HW,2013-01-19 11:10:00,
2013-01-19 04:11:00,36.9,18.5,29.97,NW,315,2.0,4.0,47,0.00,,,0.00,WUHU216HW,2013-01-19 11:11:00,
2013-01-19 04:13:00,37.1,18.1,29.98,NW,315,2.7,4.0,46,0.00,,,0.00,WUHU216HW,2013-01-19 11:13:00,
2013-01-19 04:14:00,37.3,18.3,29.97,WNW,293,2.2,4.0,46,0.00,,,0.00,WUHU216HW,2013-01-19 11:14:00,
2013-01-19 04:15:00,37.4,18.5,29.97,West,270,3.1,4.0,46,0.00,,,0.00,WUHU216HW,2013-01-19 11:15:00,
2013-01-19 04:21:00,37.6,18.6,29.98,West,270,3.4,5.4,46,0.00,,,0.00,WUHU216HW,2013-01-19 11:21:00,
2013-01-19 04:38:00,36.9,17.9,29.98,West,270,1.1,3.1,46,0.00,,,0.00,WUHU216HW,2013-01-19 11:38:00,
2013-01-19 04:50:00,36.7,17.8,29.98,SSW,203,3.6,3.6,46,0.00,,,0.00,WUHU216HW,2013-01-19 11:50:00,
2013-01-19 04:56:00,36.4,17.5,29.99,SW,225,1.6,3.6,46,0.00,,,0.00,WUHU216HW,2013-01-19 11:56:00,
2013-01-19 05:03:00,35.8,17.5,29.99,West,270,2.2,3.8,47,0.00,,,0.00,WUHU216HW,2013-01-19 12:03:00,
2013-01-19 05:09:00,35.5,17.2,29.99,WSW,248,1.1,3.8,47,0.00,,,0.00,WUHU216HW,2013-01-19 12:09:00,
2013-01-19 05:14:00,35.1,16.8,29.99,WSW,248,1.1,2.2,47,0.00,,,0.00,WUHU216HW,2013-01-19 12:14:00,
2013-01-19 05:26:00,34.2,16.9,29.99,West,270,2.2,3.6,49,0.00,,,0.00,WUHU216HW,2013-01-19 12:26:00,
2013-01-19 05:47:00,33.5,16.3,29.99,WSW,248,1.3,2.0,49,0.00,,,0.00,WUHU216HW,2013-01-19 12:47:00,
2013-01-19 05:48:00,33.5,16.7,29.99,WSW,248,1.1,2.0,50,0.00,,,0.00,WUHU216HW,2013-01-19 12:48:00,
2013-01-19 05:53:00,33.3,16.7,29.99,West,270,1.6,1.8,50,0.00,,,0.00,WUHU216HW,2013-01-19 12:53:00,
2013-01-19 05:58:00,33.1,16.5,30.00,West,270,1.6,1.8,50,0.00,,,0.00,WUHU216HW,2013-01-19 12:58:00,
2013-01-19 06:03:00,32.9,16.8,30.00,West,270,5.4,5.4,51,0.00,,,0.00,WUHU216HW,2013-01-19 13:03:00,
2013-01-19 06:08:00,32.8,16.6,29.99,WNW,293,2.9,5.4,51,0.00,,,0.00,WUHU216HW,2013-01-19 13:08:00,
2013-01-19 06:09:00,32.8,16.6,29.99,WNW,293,2.9,5.4,51,0.00,,,0.00,WUHU216HW,2013-01-19 13:09:00,
2013-01-19 06:13:00,32.8,17.0,30.00,West,270,3.4,5.4,52,0.00,,,0.00,WUHU216HW,2013-01-19 13:13:00,
2013-01-19 06:14:00,32.8,17.0,30.00,West,270,3.4,5.4,52,0.00,,,0.00,WUHU216HW,2013-01-19 13:14:00,
2013-01-19 06:18:00,32.8,17.0,30.00,WNW,293,2.7,4.5,52,0.00,,,0.00,WUHU216HW,2013-01-19 13:18:00,
2013-01-19 06:19:00,32.8,17.0,30.00,WNW,293,2.7,4.5,52,0.00,,,0.00,WUHU216HW,2013-01-19 13:19:00,
2013-01-19 06:24:00,32.8,17.0,30.00,WSW,248,4.9,5.6,52,0.00,,,0.00,WUHU216HW,2013-01-19 13:24:00,
2013-01-19 06:29:00,32.8,17.0,30.00,West,270,2.5,6.3,52,0.00,,,0.00,WUHU216HW,2013-01-19 13:29:00,
2013-01-19 06:34:00,32.8,17.0,30.00,NW,315,4.7,6.3,52,0.00,,,0.00,WUHU216HW,2013-01-19 13:34:00,
2013-01-19 06:39:00,32.8,17.0,30.00,WNW,293,2.5,4.7,52,0.00,,,0.00,WUHU216HW,2013-01-19 13:39:00,
2013-01-19 06:44:00,32.8,17.5,30.00,West,270,3.8,4.3,53,0.00,,,0.00,WUHU216HW,2013-01-19 13:44:00,
2013-01-19 06:49:00,32.6,17.3,30.01,West,270,2.9,3.8,53,0.00,,,0.00,WUHU216HW,2013-01-19 13:49:00,
2013-01-19 06:54:00,32.2,16.9,30.01,West,270,1.3,4.0,53,0.00,,,0.00,WUHU216HW,2013-01-19 13:54:00,
2013-01-19 06:59:00,32.0,16.7,30.01,West,270,1.1,4.0,53,0.00,,,0.00,WUHU216HW,2013-01-19 13:59:00,
2013-01-19 07:00:00,32.0,16.4,30.01,West,270,1.3,3.4,52,0.00,,,0.00,WUHU216HW,2013-01-19 14:00:00,
2013-01-19 07:04:00,31.9,16.7,30.01,WSW,248,1.8,3.1,53,0.00,,,0.00,WUHU216HW,2013-01-19 14:04:00,
2013-01-19 07:05:00,31.9,16.7,30.01,WSW,248,1.8,2.9,53,0.00,,,0.00,WUHU216HW,2013-01-19 14:05:00,
2013-01-19 07:09:00,31.7,16.5,30.01,West,270,2.5,2.9,53,0.00,,,0.00,WUHU216HW,2013-01-19 14:09:00,
2013-01-19 07:10:00,31.7,16.5,30.01,WNW,293,3.1,3.1,53,0.00,,,0.00,WUHU216HW,2013-01-19 14:10:00,
2013-01-19 07:14:00,31.7,16.8,30.01,SW,225,1.8,3.1,54,0.00,,,0.00,WUHU216HW,2013-01-19 14:14:00,
2013-01-19 07:15:00,31.7,16.8,30.01,SW,225,1.8,3.1,54,0.00,,,0.00,WUHU216HW,2013-01-19 14:15:00,
2013-01-19 07:19:00,31.5,16.8,30.02,WNW,293,1.1,3.4,54,0.00,,,0.00,WUHU216HW,2013-01-19 14:19:00,
2013-01-19 07:20:00,31.5,16.8,30.02,WNW,293,2.5,3.4,54,0.00,,,0.00,WUHU216HW,2013-01-19 14:20:00,
2013-01-19 07:25:00,31.5,16.8,30.02,West,270,3.8,3.8,54,0.00,,,0.00,WUHU216HW,2013-01-19 14:25:00,
2013-01-19 07:30:00,31.3,16.6,30.02,NNW,338,2.5,3.8,54,0.00,,,0.00,WUHU216HW,2013-01-19 14:30:00,
2013-01-19 07:31:00,31.3,16.6,30.02,SSW,203,1.8,3.8,54,0.00,,,0.00,WUHU216HW,2013-01-19 14:31:00,
2013-01-19 07:35:00,31.3,16.6,30.02,West,270,2.5,3.4,54,0.00,,,0.00,WUHU216HW,2013-01-19 14:35:00,
2013-01-19 07:36:00,31.1,16.4,30.02,WSW,248,1.3,3.4,54,0.00,,,0.00,WUHU216HW,2013-01-19 14:36:00,
2013-01-19 07:40:00,31.1,16.4,30.02,WSW,248,2.0,2.9,54,0.00,,,0.00,WUHU216HW,2013-01-19 14:40:00,
2013-01-19 07:41:00,31.1,16.4,30.02,SW,225,2.5,2.5,54,0.00,,,0.00,WUHU216HW,2013-01-19 14:41:00,
2013-01-19 07:45:00,31.1,16.4,30.03,West,270,1.3,3.4,54,0.00,,,0.00,WUHU216HW,2013-01-19 14:45:00,
2013-01-19 07:46:00,31.1,16.4,30.03,WSW,248,2.7,3.4,54,0.00,,,0.00,WUHU216HW,2013-01-19 14:46:00,
2013-01-19 07:47:00,31.1,16.4,30.03,West,270,1.6,3.4,54,0.00,,,0.00,WUHU216HW,2013-01-19 14:47:00,
2013-01-19 07:50:00,31.1,16.4,30.03,WNW,293,2.5,3.6,54,0.00,,,0.00,WUHU216HW,2013-01-19 14:50:00,
2013-01-19 07:51:00,31.1,16.8,30.03,NW,315,2.2,3.6,55,0.00,,,0.00,WUHU216HW,2013-01-19 14:51:00,
2013-01-19 07:52:00,31.1,16.8,30.03,NW,315,2.2,3.6,55,0.00,,,0.00,WUHU216HW,2013-01-19 14:52:00,
2013-01-19 07:55:00,31.1,16.4,30.03,ESE,113,0.9,3.6,54,0.00,,,0.00,WUHU216HW,2013-01-19 14:55:00,
2013-01-19 07:56:00,31.1,16.4,30.03,West,270,0.7,3.6,54,0.00,,,0.00,WUHU216HW,2013-01-19 14:56:00,
2013-01-19 07:57:00,31.1,16.4,30.03,West,270,0.7,3.6,54,0.00,,,0.00,WUHU216HW,2013-01-19 14:57:00,
2013-01-19 08:00:00,31.0,16.7,30.04,SE,135,0.9,2.2,55,0.00,,,0.00,WUHU216HW,2013-01-19 15:00:00,
2013-01-19 08:01:00,31.0,16.2,30.04,East,90,1.3,2.2,54,0.00,,,0.00,WUHU216HW,2013-01-19 15:01:00,
2013-01-19 08:02:00,31.0,16.7,30.04,East,90,1.8,2.0,55,0.00,,,0.00,WUHU216HW,2013-01-19 15:02:00,
2013-01-19 08:06:00,30.8,16.5,30.05,East,90,1.3,2.2,55,0.00,,,0.00,WUHU216HW,2013-01-19 15:06:00,
2013-01-19 08:07:00,30.8,16.5,30.05,WSW,248,0.4,2.2,55,0.00,,,0.00,WUHU216HW,2013-01-19 15:07:00,
2013-01-19 08:11:00,30.6,16.3,30.05,SSW,203,0.4,2.2,55,0.00,,,0.00,WUHU216HW,2013-01-19 15:11:00,
2013-01-19 08:12:00,30.6,16.3,30.05,ESE,113,0.0,2.2,55,0.00,,,0.00,WUHU216HW,2013-01-19 15:12:00,
2013-01-19 08:13:00,30.6,16.3,30.05,ESE,113,0.4,2.2,55,0.00,,,0.00,WUHU216HW,2013-01-19 15:13:00,
2013-01-19 08:16:00,30.6,16.3,30.06,NNW,338,0.7,2.0,55,0.00,,,0.00,WUHU216HW,2013-01-19 15:16:00,
2013-01-19 08:17:00,30.6,16.3,30.05,West,270,4.5,4.5,55,0.00,,,0.00,WUHU216HW,2013-01-19 15:17:00,
2013-01-19 08:18:00,30.6,16.3,30.05,West,270,4.5,4.5,55,0.00,,,0.00,WUHU216HW,2013-01-19 15:18:00,
2013-01-19 08:21:00,30.6,16.3,30.05,West,270,2.0,4.5,55,0.00,,,0.00,WUHU216HW,2013-01-19 15:21:00,
2013-01-19 08:22:00,30.6,16.3,30.06,WSW,248,1.8,4.5,55,0.00,,,0.00,WUHU216HW,2013-01-19 15:22:00,
2013-01-19 08:23:00,30.6,16.3,30.06,WSW,248,1.8,4.5,55,0.00,,,0.00,WUHU216HW,2013-01-19 15:23:00,
2013-01-19 08:26:00,30.8,16.5,30.06,WSW,248,1.1,4.5,55,0.00,,,0.00,WUHU216HW,2013-01-19 15:26:00,
2013-01-19 08:27:00,30.8,16.5,30.06,SW,225,1.1,2.9,55,0.00,,,0.00,WUHU216HW,2013-01-19 15:27:00,
2013-01-19 08:28:00,30.8,16.5,30.06,SW,225,1.1,2.5,55,0.00,,,0.00,WUHU216HW,2013-01-19 15:28:00,
2013-01-19 08:31:00,31.0,17.0,30.06,SSW,203,1.3,2.2,56,0.00,,,0.00,WUHU216HW,2013-01-19 15:31:00,
2013-01-19 08:32:00,31.0,17.0,30.06,SW,225,1.8,2.2,56,0.00,,,0.00,WUHU216HW,2013-01-19 15:32:00,
2013-01-19 08:33:00,31.0,17.0,30.06,SW,225,2.0,2.2,56,0.00,,,0.00,WUHU216HW,2013-01-19 15:33:00,
2013-01-19 08:36:00,31.1,17.2,30.06,South,180,0.9,2.0,56,0.00,,,0.00,WUHU216HW,2013-01-19 15:36:00,
2013-01-19 08:37:00,31.1,17.2,30.06,South,180,0.9,2.0,56,0.00,,,0.00,WUHU216HW,2013-01-19 15:37:00,
2013-01-19 08:38:00,31.0,17.0,30.06,South,180,0.0,2.0,56,0.00,,,0.00,WUHU216HW,2013-01-19 15:38:00,
2013-01-19 08:39:00,31.1,16.8,30.06,SSW,203,0.4,2.0,55,0.00,,,0.00,WUHU216HW,2013-01-19 15:39:00,
2013-01-19 08:41:00,31.0,16.7,30.07,SW,225,2.2,2.2,55,0.00,,,0.00,WUHU216HW,2013-01-19 15:41:00,
2013-01-19 08:42:00,31.0,16.7,30.07,SW,225,2.2,2.2,55,0.00,,,0.00,WUHU216HW,2013-01-19 15:42:00,
2013-01-19 08:43:00,31.0,16.7,30.07,SSW,203,2.5,2.5,55,0.00,,,0.00,WUHU216HW,2013-01-19 15:43:00,
2013-01-19 08:44:00,31.0,16.7,30.07,SSW,203,1.3,2.5,55,0.00,,,0.00,WUHU216HW,2013-01-19 15:44:00,
2013-01-19 08:47:00,31.0,16.7,30.07,SSW,203,2.9,2.9,55,0.00,,,0.00,WUHU216HW,2013-01-19 15:47:00,
2013-01-19 08:48:00,31.0,16.7,30.07,SW,225,2.5,2.9,55,0.00,,,0.00,WUHU216HW,2013-01-19 15:48:00,
2013-01-19 08:49:00,31.0,17.0,30.07,SW,225,2.5,2.9,56,0.00,,,0.00,WUHU216HW,2013-01-19 15:49:00,
2013-01-19 08:52:00,31.0,17.0,30.07,SW,225,3.4,3.4,56,0.00,,,0.00,WUHU216HW,2013-01-19 15:52:00,
2013-01-19 08:53:00,31.0,17.0,30.07,SW,225,3.1,3.4,56,0.00,,,0.00,WUHU216HW,2013-01-19 15:53:00,
2013-01-19 08:54:00,31.0,17.0,30.07,SW,225,3.6,3.6,56,0.00,,,0.00,WUHU216HW,2013-01-19 15:54:00,
2013-01-19 08:57:00,31.1,17.2,30.07,SW,225,1.6,4.3,56,0.00,,,0.00,WUHU216HW,2013-01-19 15:57:00,
2013-01-19 08:58:00,31.1,17.2,30.07,SW,225,2.2,4.3,56,0.00,,,0.00,WUHU216HW,2013-01-19 15:58:00,
2013-01-19 08:59:00,31.3,17.4,30.07,SSW,203,3.8,4.3,56,0.00,,,0.00,WUHU216HW,2013-01-19 15:59:00,
2013-01-19 09:02:00,31.3,17.4,30.07,SW,225,2.5,4.5,56,0.00,,,0.00,WUHU216HW,2013-01-19 16:02:00,
2013-01-19 09:03:00,31.3,17.4,30.08,SSW,203,2.5,4.5,56,0.00,,,0.00,WUHU216HW,2013-01-19 16:03:00,
2013-01-19 09:04:00,31.3,17.4,30.07,SSW,203,0.7,4.5,56,0.00,,,0.00,WUHU216HW,2013-01-19 16:04:00,
2013-01-19 09:07:00,31.7,17.7,30.08,SW,225,0.2,4.5,56,0.00,,,0.00,WUHU216HW,2013-01-19 16:07:00,
2013-01-19 09:08:00,31.7,17.7,30.07,SSW,203,0.4,4.5,56,0.00,,,0.00,WUHU216HW,2013-01-19 16:08:00,
2013-01-19 09:10:00,31.9,17.9,30.08,SSW,203,3.1,4.5,56,0.00,,,0.00,WUHU216HW,2013-01-19 16:10:00,
2013-01-19 09:12:00,32.0,18.1,30.08,SSE,158,0.4,3.1,56,0.00,,,0.00,WUHU216HW,2013-01-19 16:12:00,
2013-01-19 09:14:00,32.0,18.1,30.08,SE,135,0.4,3.1,56,0.00,,,0.00,WUHU216HW,2013-01-19 16:14:00,
2013-01-19 09:15:00,32.0,18.1,30.09,ENE,68,1.8,3.1,56,0.00,,,0.00,WUHU216HW,2013-01-19 16:15:00,
2013-01-19 09:17:00,32.4,18.8,30.09,NE,45,0.7,3.1,57,0.00,,,0.00,WUHU216HW,2013-01-19 16:17:00,
2013-01-19 09:18:00,32.4,18.8,30.09,NE,45,0.7,3.1,57,0.00,,,0.00,WUHU216HW,2013-01-19 16:18:00,
2013-01-19 09:19:00,32.6,18.5,30.09,ENE,68,1.8,3.1,56,0.00,,,0.00,WUHU216HW,2013-01-19 16:19:00,
2013-01-19 09:20:00,32.8,18.7,30.09,East,90,0.0,2.2,56,0.00,,,0.00,WUHU216HW,2013-01-19 16:20:00,
2013-01-19 09:22:00,32.8,18.7,30.09,NE,45,1.8,1.8,56,0.00,,,0.00,WUHU216HW,2013-01-19 16:22:00,
2013-01-19 09:23:00,32.8,18.7,30.09,NE,45,1.8,1.8,56,0.00,,,0.00,WUHU216HW,2013-01-19 16:23:00,
2013-01-19 09:24:00,33.1,19.1,30.10,ENE,68,2.5,2.5,56,0.00,,,0.00,WUHU216HW,2013-01-19 16:24:00,
2013-01-19 09:25:00,33.3,19.2,30.10,East,90,0.4,2.5,56,0.00,,,0.00,WUHU216HW,2013-01-19 16:25:00,
2013-01-19 09:27:00,33.5,19.4,30.10,ESE,113,0.2,2.5,56,0.00,,,0.00,WUHU216HW,2013-01-19 16:27:00,
2013-01-19 09:28:00,33.5,19.4,30.10,ESE,113,0.2,2.5,56,0.00,,,0.00,WUHU216HW,2013-01-19 16:28:00,
2013-01-19 09:29:00,33.7,19.5,30.10,ESE,113,0.0,2.5,56,0.00,,,0.00,WUHU216HW,2013-01-19 16:29:00,
2013-01-19 09:30:00,33.7,19.1,30.10,SE,135,0.4,2.5,55,0.00,,,0.00,WUHU216HW,2013-01-19 16:30:00,
2013-01-19 09:32:00,33.8,19.3,30.10,ESE,113,0.4,2.5,55,0.00,,,0.00,WUHU216HW,2013-01-19 16:32:00,
2013-01-19 09:33:00,33.8,19.3,30.10,ESE,113,0.4,2.5,55,0.00,,,0.00,WUHU216HW,2013-01-19 16:33:00,
2013-01-19 09:34:00,34.0,19.4,30.10,East,90,0.0,0.4,55,0.00,,,0.00,WUHU216HW,2013-01-19 16:34:00,
2013-01-19 09:35:00,34.0,19.4,30.10,ESE,113,0.4,0.4,55,0.00,,,0.00,WUHU216HW,2013-01-19 16:35:00,
2013-01-19 09:37:00,34.2,19.6,30.10,NE,45,2.7,2.7,55,0.00,,,0.00,WUHU216HW,2013-01-19 16:37:00,
2013-01-19 09:38:00,34.2,19.6,30.10,NE,45,2.7,2.7,55,0.00,,,0.00,WUHU216HW,2013-01-19 16:38:00,
2013-01-19 09:39:00,34.6,20.4,30.10,East,90,0.4,2.7,56,0.00,,,0.00,WUHU216HW,2013-01-19 16:39:00,
2013-01-19 09:40:00,34.6,20.4,30.10,ESE,113,0.4,2.7,56,0.00,,,0.00,WUHU216HW,2013-01-19 16:40:00,
2013-01-19 09:42:00,34.9,20.8,30.10,East,90,0.4,2.7,56,0.00,,,0.00,WUHU216HW,2013-01-19 16:42:00,
2013-01-19 09:43:00,34.9,20.8,30.10,East,90,0.4,2.7,56,0.00,,,0.00,WUHU216HW,2013-01-19 16:43:00,
2013-01-19 09:44:00,34.9,20.8,30.11,East,90,1.1,2.7,56,0.00,,,0.00,WUHU216HW,2013-01-19 16:44:00,
2013-01-19 09:46:00,35.3,21.2,30.11,NNE,23,2.5,2.7,56,0.00,,,0.00,WUHU216HW,2013-01-19 16:46:00,
2013-01-19 09:48:00,35.6,22.0,30.11,East,90,1.8,2.7,57,0.00,,,0.00,WUHU216HW,2013-01-19 16:48:00,
2013-01-19 09:49:00,36.0,21.8,30.11,ESE,113,1.6,2.5,56,0.00,,,0.00,WUHU216HW,2013-01-19 16:49:00,
2013-01-19 09:51:00,36.2,22.0,30.11,SE,135,1.1,2.5,56,0.00,,,0.00,WUHU216HW,2013-01-19 16:51:00,
2013-01-19 09:53:00,36.4,22.1,30.11,ENE,68,1.8,2.5,56,0.00,,,0.00,WUHU216HW,2013-01-19 16:53:00,
2013-01-19 09:54:00,36.5,22.3,30.12,East,90,4.5,4.5,56,0.00,,,0.00,WUHU216HW,2013-01-19 16:54:00,
2013-01-19 09:57:00,36.9,22.6,30.11,East,90,0.9,4.5,56,0.00,,,0.00,WUHU216HW,2013-01-19 16:57:00,
2013-01-19 09:58:00,36.9,22.6,30.12,SE,135,3.1,4.5,56,0.00,,,0.00,WUHU216HW,2013-01-19 16:58:00,
2013-01-19 10:00:00,37.1,22.8,30.12,ESE,113,1.1,4.5,56,0.00,,,0.00,WUHU216HW,2013-01-19 17:00:00,
2013-01-19 10:02:00,37.1,22.8,30.11,East,90,2.5,4.9,56,0.00,,,0.00,WUHU216HW,2013-01-19 17:02:00,
2013-01-19 10:03:00,37.1,22.8,30.12,NNE,23,5.1,5.1,56,0.00,,,0.00,WUHU216HW,2013-01-19 17:03:00,
2013-01-19 10:05:00,37.1,22.8,30.12,East,90,1.8,5.1,56,0.00,,,0.00,WUHU216HW,2013-01-19 17:05:00,
2013-01-19 10:07:00,37.1,22.8,30.12,ENE,68,3.4,5.1,56,0.00,,,0.00,WUHU216HW,2013-01-19 17:07:00,
2013-01-19 10:08:00,37.1,22.8,30.12,East,90,3.4,5.1,56,0.00,,,0.00,WUHU216HW,2013-01-19 17:08:00,
2013-01-19 10:11:00,37.3,23.0,30.12,ESE,113,2.5,5.1,56,0.00,,,0.00,WUHU216HW,2013-01-19 17:11:00,
2013-01-19 10:13:00,37.3,23.0,30.13,ENE,68,1.6,5.4,56,0.00,,,0.00,WUHU216HW,2013-01-19 17:13:00,
2013-01-19 10:19:00,37.4,23.1,30.13,ESE,113,1.8,5.4,56,0.00,,,0.00,WUHU216HW,2013-01-19 17:19:00,
2013-01-19 10:20:00,37.4,23.1,30.12,ENE,68,2.5,5.4,56,0.00,,,0.00,WUHU216HW,2013-01-19 17:20:00,
2013-01-19 10:24:00,37.4,23.6,30.13,ESE,113,4.7,4.7,57,0.00,,,0.00,WUHU216HW,2013-01-19 17:24:00,
2013-01-19 10:25:00,37.6,23.3,30.13,ESE,113,1.3,4.7,56,0.00,,,0.00,WUHU216HW,2013-01-19 17:25:00,
2013-01-19 10:29:00,37.6,23.7,30.13,SE,135,1.1,4.7,57,0.00,,,0.00,WUHU216HW,2013-01-19 17:29:00,
2013-01-19 10:30:00,37.8,23.4,30.13,East,90,0.9,4.7,56,0.00,,,0.00,WUHU216HW,2013-01-19 17:30:00,
2013-01-19 10:35:00,37.8,23.9,30.13,ENE,68,1.8,3.6,57,0.00,,,0.00,WUHU216HW,2013-01-19 17:35:00,
2013-01-19 10:40:00,38.3,24.4,30.13,ESE,113,1.8,3.4,57,0.00,,,0.00,WUHU216HW,2013-01-19 17:40:00,
2013-01-19 10:41:00,38.3,24.4,30.13,ESE,113,1.8,3.4,57,0.00,,,0.00,WUHU216HW,2013-01-19 17:41:00,
2013-01-19 10:45:00,38.5,24.1,30.13,SE,135,4.7,4.7,56,0.00,,,0.00,WUHU216HW,2013-01-19 17:45:00,
2013-01-19 10:46:00,38.5,24.1,30.13,SE,135,4.7,4.7,56,0.00,,,0.00,WUHU216HW,2013-01-19 17:46:00,
2013-01-19 10:50:00,38.5,24.1,30.13,ESE,113,3.4,4.7,56,0.00,,,0.00,WUHU216HW,2013-01-19 17:50:00,
2013-01-19 10:52:00,38.5,24.1,30.13,ESE,113,4.5,4.7,56,0.00,,,0.00,WUHU216HW,2013-01-19 17:52:00,
2013-01-19 10:55:00,38.7,24.7,30.13,ESE,113,1.1,4.5,57,0.00,,,0.00,WUHU216HW,2013-01-19 17:55:00,
2013-01-19 10:57:00,38.9,24.8,30.13,SSE,158,4.7,4.7,57,0.00,,,0.00,WUHU216HW,2013-01-19 17:57:00,
2013-01-19 11:00:00,38.9,24.8,30.13,SE,135,1.8,4.7,57,0.00,,,0.00,WUHU216HW,2013-01-19 18:00:00,
2013-01-19 11:03:00,39.1,25.0,30.13,SSE,158,3.1,4.7,57,0.00,,,0.00,WUHU216HW,2013-01-19 18:03:00,
2013-01-19 11:07:00,39.2,24.8,30.13,South,180,1.1,4.7,56,0.00,,,0.00,WUHU216HW,2013-01-19 18:07:00,
2013-01-19 11:08:00,39.2,24.8,30.13,SE,135,2.7,4.7,56,0.00,,,0.00,WUHU216HW,2013-01-19 18:08:00,
2013-01-19 11:12:00,39.4,24.9,30.13,ESE,113,4.0,4.0,56,0.00,,,0.00,WUHU216HW,2013-01-19 18:12:00,
2013-01-19 11:13:00,39.4,24.9,30.13,East,90,2.2,4.0,56,0.00,,,0.00,WUHU216HW,2013-01-19 18:13:00,
2013-01-19 11:17:00,39.2,24.8,30.13,East,90,2.5,4.3,56,0.00,,,0.00,WUHU216HW,2013-01-19 18:17:00,
2013-01-19 11:18:00,39.2,24.8,30.13,ESE,113,1.3,4.3,56,0.00,,,0.00,WUHU216HW,2013-01-19 18:18:00,
2013-01-19 11:22:00,39.2,24.8,30.13,East,90,2.2,4.3,56,0.00,,,0.00,WUHU216HW,2013-01-19 18:22:00,
2013-01-19 11:25:00,39.2,24.8,30.13,ENE,68,1.1,3.4,56,0.00,,,0.00,WUHU216HW,2013-01-19 18:25:00,
2013-01-19 11:28:00,39.2,24.8,30.13,ESE,113,4.5,4.5,56,0.00,,,0.00,WUHU216HW,2013-01-19 18:28:00,
2013-01-19 11:30:00,39.4,24.9,30.13,ESE,113,1.1,4.5,56,0.00,,,0.00,WUHU216HW,2013-01-19 18:30:00,
2013-01-19 11:33:00,39.6,25.1,30.13,NE,45,1.6,4.5,56,0.00,,,0.00,WUHU216HW,2013-01-19 18:33:00,
2013-01-19 11:35:00,39.8,25.3,30.13,ESE,113,2.2,4.5,56,0.00,,,0.00,WUHU216HW,2013-01-19 18:35:00,
2013-01-19 11:38:00,40.0,25.4,30.13,SE,135,5.1,5.1,56,0.00,,,0.00,WUHU216HW,2013-01-19 18:38:00,
2013-01-19 11:40:00,40.0,25.4,30.12,East,90,4.0,5.1,56,0.00,,,0.00,WUHU216HW,2013-01-19 18:40:00,
2013-01-19 11:43:00,40.1,25.6,30.13,SSE,158,3.1,5.1,56,0.00,,,0.00,WUHU216HW,2013-01-19 18:43:00,
2013-01-19 11:46:00,40.1,25.6,30.12,SSE,158,3.1,5.1,56,0.00,,,0.00,WUHU216HW,2013-01-19 18:46:00,
2013-01-19 11:49:00,40.3,25.7,30.12,ESE,113,2.0,4.0,56,0.00,,,0.00,WUHU216HW,2013-01-19 18:49:00,
2013-01-19 11:51:00,40.3,25.7,30.12,East,90,1.1,4.5,56,0.00,,,0.00,WUHU216HW,2013-01-19 18:51:00,
2013-01-19 11:54:00,40.1,25.6,30.12,SSE,158,4.3,4.5,56,0.00,,,0.00,WUHU216HW,2013-01-19 18:54:00,
2013-01-19 11:56:00,40.1,25.6,30.12,East,90,2.9,4.5,56,0.00,,,0.00,WUHU216HW,2013-01-19 18:56:00,
2013-01-19 11:59:00,40.0,25.4,30.12,SE,135,1.6,4.3,56,0.00,,,0.00,WUHU216HW,2013-01-19 18:59:00,
2013-01-19 12:02:00,40.1,25.6,30.12,East,90,1.8,4.3,56,0.00,,,0.00,WUHU216HW,2013-01-19 19:02:00,
2013-01-19 12:05:00,40.3,25.7,30.12,ESE,113,0.9,3.4,56,0.00,,,0.00,WUHU216HW,2013-01-19 19:05:00,
2013-01-19 12:07:00,40.3,25.7,30.12,SE,135,3.6,3.6,56,0.00,,,0.00,WUHU216HW,2013-01-19 19:07:00,
2013-01-19 12:10:00,40.7,26.6,30.11,SE,135,6.0,6.0,57,0.00,,,0.00,WUHU216HW,2013-01-19 19:10:00,
2013-01-19 12:14:00,41.2,26.7,30.11,SSE,158,1.8,9.2,56,0.00,,,0.00,WUHU216HW,2013-01-19 19:14:00,
2013-01-19 12:15:00,41.2,26.7,30.11,SE,135,2.0,9.2,56,0.00,,,0.00,WUHU216HW,2013-01-19 19:15:00,
2013-01-19 12:19:00,41.4,26.8,30.11,East,90,2.5,9.2,56,0.00,,,0.00,WUHU216HW,2013-01-19 19:19:00,
2013-01-19 12:20:00,41.4,26.8,30.11,East,90,2.5,9.2,56,0.00,,,0.00,WUHU216HW,2013-01-19 19:20:00,
2013-01-19 12:25:00,41.4,26.4,30.11,SE,135,2.5,3.8,55,0.00,,,0.00,WUHU216HW,2013-01-19 19:25:00,
2013-01-19 12:30:00,41.4,26.4,30.11,ENE,68,2.9,3.8,55,0.00,,,0.00,WUHU216HW,2013-01-19 19:30:00,
2013-01-19 12:36:00,41.0,26.0,30.11,SSE,158,2.5,4.0,55,0.00,,,0.00,WUHU216HW,2013-01-19 19:36:00,
2013-01-19 12:42:00,41.0,26.5,30.11,East,90,3.6,5.1,56,0.00,,,0.00,WUHU216HW,2013-01-19 19:42:00,
2013-01-19 12:47:00,40.7,26.1,30.11,NE,45,3.4,5.1,56,0.00,,,0.00,WUHU216HW,2013-01-19 19:47:00,
2013-01-19 12:52:00,40.7,26.1,30.11,SSE,158,3.8,4.7,56,0.00,,,0.00,WUHU216HW,2013-01-19 19:52:00,
2013-01-19 12:53:00,40.7,26.1,30.11,SSE,158,3.8,4.7,56,0.00,,,0.00,WUHU216HW,2013-01-19 19:53:00,
2013-01-19 12:57:00,41.0,26.5,30.11,SSE,158,4.0,4.5,56,0.00,,,0.00,WUHU216HW,2013-01-19 19:57:00,
2013-01-19 12:58:00,41.0,26.5,30.11,SE,135,4.0,4.0,56,0.00,,,0.00,WUHU216HW,2013-01-19 19:58:00,
2013-01-19 13:02:00,41.2,26.7,30.10,ESE,113,1.3,4.0,56,0.00,,,0.00,WUHU216HW,2013-01-19 20:02:00,
2013-01-19 13:03:00,41.2,26.7,30.10,SE,135,1.8,4.0,56,0.00,,,0.00,WUHU216HW,2013-01-19 20:03:00,
2013-01-19 13:07:00,41.0,26.5,30.10,East,90,1.8,4.0,56,0.00,,,0.00,WUHU216HW,2013-01-19 20:07:00,
2013-01-19 13:09:00,41.0,26.5,30.10,ESE,113,1.8,4.0,56,0.00,,,0.00,WUHU216HW,2013-01-19 20:09:00,
2013-01-19 13:12:00,40.7,26.1,30.10,East,90,2.7,3.8,56,0.00,,,0.00,WUHU216HW,2013-01-19 20:12:00,
2013-01-19 13:15:00,40.5,26.4,30.10,ESE,113,3.6,3.6,57,0.00,,,0.00,WUHU216HW,2013-01-19 20:15:00,
2013-01-19 13:19:00,40.3,26.2,30.10,East,90,3.4,4.3,57,0.00,,,0.00,WUHU216HW,2013-01-19 20:19:00,
2013-01-19 13:20:00,40.1,26.5,30.10,ENE,68,2.0,4.3,58,0.00,,,0.00,WUHU216HW,2013-01-19 20:20:00,
2013-01-19 13:24:00,39.8,26.1,30.10,ENE,68,1.6,4.3,58,0.00,,,0.00,WUHU216HW,2013-01-19 20:24:00,
2013-01-19 13:25:00,39.6,26.4,30.10,ESE,113,1.8,4.3,59,0.00,,,0.00,WUHU216HW,2013-01-19 20:25:00,
2013-01-19 13:29:00,39.4,26.2,30.10,ESE,113,3.6,3.8,59,0.00,,,0.00,WUHU216HW,2013-01-19 20:29:00,
2013-01-19 13:30:00,39.4,26.2,30.10,East,90,4.7,4.7,59,0.00,,,0.00,WUHU216HW,2013-01-19 20:30:00,
2013-01-19 13:34:00,39.2,26.5,30.10,SE,135,1.3,4.7,60,0.00,,,0.00,WUHU216HW,2013-01-19 20:34:00,
2013-01-19 13:35:00,39.2,26.5,30.10,East,90,3.4,4.7,60,0.00,,,0.00,WUHU216HW,2013-01-19 20:35:00,
2013-01-19 13:39:00,39.1,26.3,30.10,ESE,113,3.1,4.7,60,0.00,,,0.00,WUHU216HW,2013-01-19 20:39:00,
2013-01-19 13:40:00,39.1,26.3,30.10,ENE,68,1.3,3.4,60,0.00,,,0.00,WUHU216HW,2013-01-19 20:40:00,
2013-01-19 13:44:00,38.9,26.6,30.10,SE,135,3.4,3.4,61,0.00,,,0.00,WUHU216HW,2013-01-19 20:44:00,
2013-01-19 13:46:00,38.7,26.4,30.10,ESE,113,2.9,3.4,61,0.00,,,0.00,WUHU216HW,2013-01-19 20:46:00,
2013-01-19 13:49:00,38.5,26.6,30.10,East,90,2.5,3.4,62,0.00,,,0.00,WUHU216HW,2013-01-19 20:49:00,
2013-01-19 13:51:00,38.3,26.4,30.09,ESE,113,1.3,3.4,62,0.00,,,0.00,WUHU216HW,2013-01-19 20:51:00,
2013-01-19 13:54:00,38.2,26.7,30.09,ESE,113,1.1,3.4,63,0.00,,,0.00,WUHU216HW,2013-01-19 20:54:00,
2013-01-19 13:58:00,38.0,26.5,30.09,ENE,68,0.7,3.4,63,0.00,,,0.00,WUHU216HW,2013-01-19 20:58:00,
2013-01-19 14:00:00,38.0,26.5,30.09,ESE,113,2.5,2.5,63,0.00,,,0.00,WUHU216HW,2013-01-19 21:00:00,
2013-01-19 14:04:00,37.8,26.3,30.09,ESE,113,1.8,4.3,63,0.00,,,0.00,WUHU216HW,2013-01-19 21:04:00,
2013-01-19 14:05:00,37.8,26.3,30.09,ENE,68,2.5,4.3,63,0.00,,,0.00,WUHU216HW,2013-01-19 21:05:00,
2013-01-19 14:10:00,37.8,26.3,30.09,East,90,2.0,4.3,63,0.00,,,0.00,WUHU216HW,2013-01-19 21:10:00,
2013-01-19 14:15:00,38.0,26.5,30.09,ENE,68,4.0,4.0,63,0.00,,,0.00,WUHU216HW,2013-01-19 21:15:00,
2013-01-19 14:20:00,37.8,26.3,30.09,ESE,113,3.1,4.0,63,0.00,,,0.00,WUHU216HW,2013-01-19 21:20:00,
2013-01-19 14:21:00,37.8,26.3,30.09,North,0,3.6,4.0,63,0.00,,,0.00,WUHU216HW,2013-01-19 21:21:00,
2013-01-19 14:25:00,37.8,26.3,30.09,SSE,158,1.8,3.6,63,0.00,,,0.00,WUHU216HW,2013-01-19 21:25:00,
2013-01-19 14:26:00,37.8,26.3,30.09,SE,135,1.6,3.6,63,0.00,,,0.00,WUHU216HW,2013-01-19 21:26:00,
2013-01-19 14:30:00,37.8,26.3,30.09,East,90,2.2,3.6,63,0.00,,,0.00,WUHU216HW,2013-01-19 21:30:00,
2013-01-19 14:31:00,38.0,26.5,30.09,NE,45,1.8,2.2,63,0.00,,,0.00,WUHU216HW,2013-01-19 21:31:00,
2013-01-19 14:35:00,38.2,26.7,30.09,ENE,68,0.4,2.5,63,0.00,,,0.00,WUHU216HW,2013-01-19 21:35:00,
2013-01-19 14:36:00,38.0,26.5,30.09,NNE,23,1.1,2.5,63,0.00,,,0.00,WUHU216HW,2013-01-19 21:36:00,
2013-01-19 14:41:00,38.0,26.5,30.09,NE,45,2.9,2.9,63,0.00,,,0.00,WUHU216HW,2013-01-19 21:41:00,
2013-01-19 14:47:00,38.0,26.5,30.09,NNE,23,1.8,2.9,63,0.00,,,0.00,WUHU216HW,2013-01-19 21:47:00,
2013-01-19 14:52:00,38.0,26.5,30.09,East,90,0.7,3.1,63,0.00,,,0.00,WUHU216HW,2013-01-19 21:52:00,
2013-01-19 14:57:00,38.0,26.5,30.09,ENE,68,1.3,3.1,63,0.00,,,0.00,WUHU216HW,2013-01-19 21:57:00,
2013-01-19 15:02:00,38.0,26.5,30.09,SSE,158,0.9,1.3,63,0.00,,,0.00,WUHU216HW,2013-01-19 22:02:00,
2013-01-19 15:03:00,38.0,26.5,30.09,SSE,158,0.9,1.3,63,0.00,,,0.00,WUHU216HW,2013-01-19 22:03:00,
2013-01-19 15:07:00,38.2,26.7,30.08,SSE,158,3.4,3.4,63,0.00,,,0.00,WUHU216HW,2013-01-19 22:07:00,
2013-01-19 15:09:00,38.2,26.7,30.08,SE,135,1.8,3.4,63,0.00,,,0.00,WUHU216HW,2013-01-19 22:09:00,
2013-01-19 15:13:00,38.2,26.7,30.08,SE,135,1.8,3.4,63,0.00,,,0.00,WUHU216HW,2013-01-19 22:13:00,
2013-01-19 15:14:00,38.3,26.8,30.08,SSE,158,2.0,3.4,63,0.00,,,0.00,WUHU216HW,2013-01-19 22:14:00,
2013-01-19 15:18:00,38.5,26.9,30.08,SSE,158,0.4,2.0,63,0.00,,,0.00,WUHU216HW,2013-01-19 22:18:00,
2013-01-19 15:19:00,38.5,26.9,30.08,SSE,158,0.4,2.0,63,0.00,,,0.00,WUHU216HW,2013-01-19 22:19:00,
2013-01-19 15:23:00,38.3,26.8,30.08,ESE,113,0.4,2.0,63,0.00,,,0.00,WUHU216HW,2013-01-19 22:23:00,
2013-01-19 15:24:00,38.5,26.9,30.08,ESE,113,0.7,0.7,63,0.00,,,0.00,WUHU216HW,2013-01-19 22:24:00,
2013-01-19 15:28:00,38.3,26.8,30.08,ESE,113,0.7,1.1,63,0.00,,,0.00,WUHU216HW,2013-01-19 22:28:00,
2013-01-19 15:30:00,38.2,26.7,30.08,South,180,0.4,1.1,63,0.00,,,0.00,WUHU216HW,2013-01-19 22:30:00,
2013-01-19 15:33:00,38.3,26.8,30.08,SE,135,2.5,2.5,63,0.00,,,0.00,WUHU216HW,2013-01-19 22:33:00,
2013-01-19 15:35:00,38.2,26.7,30.08,SE,135,2.2,2.5,63,0.00,,,0.00,WUHU216HW,2013-01-19 22:35:00,
2013-01-19 15:38:00,38.2,26.7,30.08,SE,135,1.8,2.5,63,0.00,,,0.00,WUHU216HW,2013-01-19 22:38:00,
2013-01-19 15:40:00,38.2,26.7,30.08,SSE,158,1.8,2.5,63,0.00,,,0.00,WUHU216HW,2013-01-19 22:40:00,
2013-01-19 15:44:00,38.2,26.7,30.08,South,180,0.4,2.2,63,0.00,,,0.00,WUHU216HW,2013-01-19 22:44:00,
2013-01-19 15:45:00,38.2,26.7,30.08,SE,135,0.9,1.8,63,0.00,,,0.00,WUHU216HW,2013-01-19 22:45:00,
2013-01-19 15:49:00,38.2,26.7,30.08,SSE,158,1.6,1.8,63,0.00,,,0.00,WUHU216HW,2013-01-19 22:49:00,
2013-01-19 15:50:00,38.2,26.7,30.07,SE,135,1.6,1.6,63,0.00,,,0.00,WUHU216HW,2013-01-19 22:50:00,
2013-01-19 15:54:00,38.2,26.7,30.07,SE,135,1.8,2.0,63,0.00,,,0.00,WUHU216HW,2013-01-19 22:54:00,
2013-01-19 15:55:00,38.0,26.5,30.07,ESE,113,0.9,2.0,63,0.00,,,0.00,WUHU216HW,2013-01-19 22:55:00,
2013-01-19 15:59:00,38.0,26.5,30.07,ESE,113,0.4,2.0,63,0.00,,,0.00,WUHU216HW,2013-01-19 22:59:00,
2013-01-19 16:00:00,38.0,26.5,30.07,ESE,113,0.0,2.0,63,0.00,,,0.00,WUHU216HW,2013-01-19 23:00:00,
2013-01-19 16:05:00,38.0,26.5,30.07,ESE,113,1.6,1.6,63,0.00,,,0.00,WUHU216HW,2013-01-19 23:05:00,
2013-01-19 16:10:00,38.0,26.5,30.07,SSW,203,0.4,1.6,63,0.00,,,0.00,WUHU216HW,2013-01-19 23:10:00,
2013-01-19 16:11:00,38.0,26.5,30.07,SSE,158,2.7,2.7,63,0.00,,,0.00,WUHU216HW,2013-01-19 23:11:00,
2013-01-19 16:15:00,37.8,26.3,30.07,SE,135,1.1,2.7,63,0.00,,,0.00,WUHU216HW,2013-01-19 23:15:00,
2013-01-19 16:17:00,37.8,26.3,30.07,SE,135,1.1,2.7,63,0.00,,,0.00,WUHU216HW,2013-01-19 23:17:00,
2013-01-19 16:20:00,37.6,25.7,30.07,SE,135,1.1,2.7,62,0.00,,,0.00,WUHU216HW,2013-01-19 23:20:00,
2013-01-19 16:22:00,37.4,25.6,30.07,SE,135,3.4,3.4,62,0.00,,,0.00,WUHU216HW,2013-01-19 23:22:00,
2013-01-19 16:25:00,37.3,25.5,30.07,SSE,158,0.4,3.4,62,0.00,,,0.00,WUHU216HW,2013-01-19 23:25:00,
2013-01-19 16:27:00,37.3,25.0,30.07,SE,135,1.8,3.4,61,0.00,,,0.00,WUHU216HW,2013-01-19 23:27:00,
2013-01-19 16:30:00,37.1,25.3,30.07,SW,225,0.0,3.4,62,0.00,,,0.00,WUHU216HW,2013-01-19 23:30:00,
2013-01-19 16:33:00,37.1,25.3,30.07,SSE,158,1.1,2.7,62,0.00,,,0.00,WUHU216HW,2013-01-19 23:33:00,
2013-01-19 16:35:00,36.9,25.1,30.07,South,180,0.4,1.8,62,0.00,,,0.00,WUHU216HW,2013-01-19 23:35:00,
2013-01-19 16:38:00,36.7,24.9,30.06,SE,135,0.4,1.1,62,0.00,,,0.00,WUHU216HW,2013-01-19 23:38:00,
2013-01-19 16:40:00,36.5,24.8,30.06,SSE,158,0.4,1.1,62,0.00,,,0.00,WUHU216HW,2013-01-19 23:40:00,
2013-01-19 16:43:00,36.5,24.8,30.07,SE,135,1.3,1.3,62,0.00,,,0.00,WUHU216HW,2013-01-19 23:43:00,
2013-01-19 16:45:00,36.4,24.6,30.07,SSE,158,1.1,1.8,62,0.00,,,0.00,WUHU216HW,2013-01-19 23:45:00,
2013-01-19 16:48:00,36.4,24.6,30.07,South,180,0.0,1.8,62,0.00,,,0.00,WUHU216HW,2013-01-19 23:48:00,
2013-01-19 16:50:00,36.2,24.5,30.07,South,180,0.0,1.8,62,0.00,,,0.00,WUHU216HW,2013-01-19 23:50:00,
2013-01-19 16:53:00,36.0,24.3,30.06,South,180,0.0,1.3,62,0.00,,,0.00,WUHU216HW,2013-01-19 23:53:00,
2013-01-19 16:56:00,35.8,24.1,30.06,SW,225,1.1,1.6,62,0.00,,,0.00,WUHU216HW,2013-01-19 23:56:00,
2013-01-19 16:59:00,35.6,23.9,30.06,SW,225,0.7,1.6,62,0.00,,,0.00,WUHU216HW,2013-01-19 23:59:00,
2013-01-19 17:02:00,35.6,23.9,30.06,South,180,0.4,2.7,62,0.00,,,0.00,WUHU216HW,2013-01-20 00:02:00,
2013-01-19 17:06:00,35.3,23.6,30.06,SSW,203,0.4,2.7,62,0.00,,,0.00,WUHU216HW,2013-01-20 00:06:00,
2013-01-19 17:07:00,35.3,23.6,30.06,SW,225,0.7,2.7,62,0.00,,,0.00,WUHU216HW,2013-01-20 00:07:00,
2013-01-19 17:11:00,34.9,23.2,30.06,SE,135,0.0,1.1,62,0.00,,,0.00,WUHU216HW,2013-01-20 00:11:00,
2013-01-19 17:13:00,34.9,23.2,30.06,SE,135,0.0,1.1,62,0.00,,,0.00,WUHU216HW,2013-01-20 00:13:00,
2013-01-19 17:17:00,34.7,23.4,30.06,SE,135,0.2,0.7,63,0.00,,,0.00,WUHU216HW,2013-01-20 00:17:00,
2013-01-19 17:18:00,34.7,23.4,30.06,ESE,113,0.4,0.4,63,0.00,,,0.00,WUHU216HW,2013-01-20 00:18:00,
2013-01-19 17:22:00,34.6,23.2,30.06,East,90,0.0,0.4,63,0.00,,,0.00,WUHU216HW,2013-01-20 00:22:00,
2013-01-19 17:23:00,34.4,23.0,30.06,East,90,0.0,0.4,63,0.00,,,0.00,WUHU216HW,2013-01-20 00:23:00,
2013-01-19 17:27:00,34.2,22.9,30.05,ENE,68,0.0,0.4,63,0.00,,,0.00,WUHU216HW,2013-01-20 00:27:00,
2013-01-19 17:28:00,34.2,22.9,30.05,ESE,113,0.4,1.3,63,0.00,,,0.00,WUHU216HW,2013-01-20 00:28:00,
2013-01-19 17:32:00,34.0,22.7,30.06,NNW,338,0.4,1.3,63,0.00,,,0.00,WUHU216HW,2013-01-20 00:32:00,
2013-01-19 17:33:00,34.0,22.7,30.06,NNW,338,0.0,1.3,63,0.00,,,0.00,WUHU216HW,2013-01-20 00:33:00,
2013-01-19 17:37:00,33.7,22.7,30.05,NNW,338,0.2,0.4,64,0.00,,,0.00,WUHU216HW,2013-01-20 00:37:00,
2013-01-19 17:38:00,33.5,22.5,30.05,North,0,0.4,0.4,64,0.00,,,0.00,WUHU216HW,2013-01-20 00:38:00,
2013-01-19 17:43:00,33.1,22.6,30.05,NE,45,0.9,1.6,65,0.00,,,0.00,WUHU216HW,2013-01-20 00:43:00,
2013-01-19 17:48:00,32.8,22.2,30.05,North,0,0.0,1.6,65,0.00,,,0.00,WUHU216HW,2013-01-20 00:48:00,
2013-01-19 17:54:00,32.6,22.4,30.05,NNE,23,0.0,0.4,66,0.00,,,0.00,WUHU216HW,2013-01-20 00:54:00,
2013-01-19 17:59:00,32.4,22.3,30.04,NNE,23,0.2,0.4,66,0.00,,,0.00,WUHU216HW,2013-01-20 00:59:00,
2013-01-19 18:04:00,32.0,22.0,30.04,North,0,0.0,0.4,66,0.00,,,0.00,WUHU216HW,2013-01-20 01:04:00,
2013-01-19 18:05:00,32.0,22.0,30.04,North,0,0.0,0.4,66,0.00,,,0.00,WUHU216HW,2013-01-20 01:05:00,
2013-01-19 18:09:00,31.9,21.8,30.04,NNE,23,0.0,0.4,66,0.00,,,0.00,WUHU216HW,2013-01-20 01:09:00,
2013-01-19 18:10:00,31.9,21.8,30.04,NNE,23,0.0,0.2,66,0.00,,,0.00,WUHU216HW,2013-01-20 01:10:00,
2013-01-19 18:15:00,31.7,21.6,30.04,NNE,23,0.9,0.9,66,0.00,,,0.00,WUHU216HW,2013-01-20 01:15:00,
2013-01-19 18:20:00,31.3,21.2,30.04,ENE,68,0.0,1.8,66,0.00,,,0.00,WUHU216HW,2013-01-20 01:20:00,
2013-01-19 18:25:00,31.0,21.2,30.04,NNE,23,0.4,0.4,67,0.00,,,0.00,WUHU216HW,2013-01-20 01:25:00,
2013-01-19 18:30:00,31.0,21.2,30.04,North,0,0.2,0.4,67,0.00,,,0.00,WUHU216HW,2013-01-20 01:30:00,
2013-01-19 18:35:00,30.8,21.4,30.03,NNW,338,0.0,0.4,68,0.00,,,0.00,WUHU216HW,2013-01-20 01:35:00,
2013-01-19 18:40:00,30.8,21.4,30.03,NNW,338,0.0,0.4,68,0.00,,,0.00,WUHU216HW,2013-01-20 01:40:00,
2013-01-19 18:41:00,30.8,21.4,30.03,NNW,338,0.0,0.4,68,0.00,,,0.00,WUHU216HW,2013-01-20 01:41:00,
2013-01-19 18:45:00,30.6,21.2,30.03,NNW,338,0.0,0.0,68,0.00,,,0.00,WUHU216HW,2013-01-20 01:45:00,
2013-01-19 18:46:00,30.6,21.2,30.03,NNW,338,0.0,0.0,68,0.00,,,0.00,WUHU216HW,2013-01-20 01:46:00,
2013-01-19 18:51:00,30.4,21.1,30.02,NNW,338,0.0,0.0,68,0.00,,,0.00,WUHU216HW,2013-01-20 01:51:00,
2013-01-19 18:56:00,29.9,20.5,30.02,NNW,338,0.0,0.0,68,0.00,,,0.00,WUHU216HW,2013-01-20 01:56:00,
2013-01-19 18:57:00,29.9,20.5,30.02,NNW,338,0.0,0.0,68,0.00,,,0.00,WUHU216HW,2013-01-20 01:57:00,
2013-01-19 19:01:00,29.7,20.8,30.02,NNW,338,0.0,0.0,69,0.00,,,0.00,WUHU216HW,2013-01-20 02:01:00,
2013-01-19 19:02:00,29.7,20.8,30.02,NNW,338,0.0,0.0,69,0.00,,,0.00,WUHU216HW,2013-01-20 02:02:00,
2013-01-19 19:06:00,29.5,20.6,30.03,NNW,338,0.0,0.0,69,0.00,,,0.00,WUHU216HW,2013-01-20 02:06:00,
2013-01-19 19:07:00,29.5,20.6,30.03,NNW,338,0.0,0.0,69,0.00,,,0.00,WUHU216HW,2013-01-20 02:07:00,
2013-01-19 19:11:00,29.2,20.3,30.02,NNW,338,0.0,0.0,69,0.00,,,0.00,WUHU216HW,2013-01-20 02:11:00,
2013-01-19 19:12:00,29.2,20.3,30.02,NNW,338,0.0,0.0,69,0.00,,,0.00,WUHU216HW,2013-01-20 02:12:00,
2013-01-19 19:16:00,29.2,20.3,30.02,NNW,338,0.0,0.0,69,0.00,,,0.00,WUHU216HW,2013-01-20 02:16:00,
2013-01-19 19:17:00,29.0,20.1,30.02,NNW,338,0.0,0.0,69,0.00,,,0.00,WUHU216HW,2013-01-20 02:17:00,
2013-01-19 19:22:00,28.8,20.4,30.02,NNW,338,0.0,0.0,70,0.00,,,0.00,WUHU216HW,2013-01-20 02:22:00,
2013-01-19 19:23:00,28.8,20.4,30.02,West,270,0.0,0.0,70,0.00,,,0.00,WUHU216HW,2013-01-20 02:23:00,
2013-01-19 19:28:00,28.6,20.2,30.02,West,270,0.0,0.2,70,0.00,,,0.00,WUHU216HW,2013-01-20 02:28:00,
2013-01-19 19:33:00,28.4,20.0,30.01,SSW,203,0.0,1.3,70,0.00,,,0.00,WUHU216HW,2013-01-20 02:33:00,
2013-01-19 19:38:00,28.3,19.8,30.01,SW,225,0.9,1.3,70,0.00,,,0.00,WUHU216HW,2013-01-20 02:38:00,
2013-01-19 19:43:00,28.1,19.6,30.01,SW,225,0.2,0.9,70,0.00,,,0.00,WUHU216HW,2013-01-20 02:43:00,
2013-01-19 19:44:00,28.1,19.6,30.01,SW,225,0.2,0.9,70,0.00,,,0.00,WUHU216HW,2013-01-20 02:44:00,
2013-01-19 19:48:00,27.9,19.7,30.01,WSW,248,0.2,0.4,71,0.00,,,0.00,WUHU216HW,2013-01-20 02:48:00,
2013-01-19 19:49:00,27.9,19.7,30.01,WSW,248,0.2,0.4,71,0.00,,,0.00,WUHU216HW,2013-01-20 02:49:00,
2013-01-19 19:54:00,27.7,19.5,30.01,WSW,248,0.0,0.4,71,0.00,,,0.00,WUHU216HW,2013-01-20 02:54:00,
2013-01-19 19:55:00,27.7,19.5,30.01,SW,225,0.4,0.4,71,0.00,,,0.00,WUHU216HW,2013-01-20 02:55:00,
2013-01-19 20:00:00,27.4,19.2,30.01,SSW,203,0.0,0.4,71,0.00,,,0.00,WUHU216HW,2013-01-20 03:00:00,
2013-01-19 20:05:00,27.0,18.8,30.01,SSW,203,0.4,0.4,71,0.00,,,0.00,WUHU216HW,2013-01-20 03:05:00,
2013-01-19 20:10:00,26.8,18.6,30.01,SSW,203,0.0,0.4,71,0.00,,,0.00,WUHU216HW,2013-01-20 03:10:00,
2013-01-19 20:15:00,26.6,18.5,30.01,SSW,203,0.2,0.4,71,0.00,,,0.00,WUHU216HW,2013-01-20 03:15:00,
2013-01-19 20:20:00,26.5,18.6,30.00,SSW,203,1.1,1.1,72,0.00,,,0.00,WUHU216HW,2013-01-20 03:20:00,
2013-01-19 20:25:00,26.3,18.5,30.00,SSW,203,1.3,1.3,72,0.00,,,0.00,WUHU216HW,2013-01-20 03:25:00,
2013-01-19 20:30:00,26.1,18.3,30.00,SSW,203,0.2,1.3,72,0.00,,,0.00,WUHU216HW,2013-01-20 03:30:00,
2013-01-19 20:32:00,26.1,18.3,30.00,SSE,158,0.2,1.3,72,0.00,,,0.00,WUHU216HW,2013-01-20 03:32:00,
2013-01-19 20:35:00,25.7,17.9,30.00,East,90,1.1,1.6,72,0.00,,,0.00,WUHU216HW,2013-01-20 03:35:00,
2013-01-19 20:38:00,25.6,17.7,30.01,ESE,113,0.4,1.6,72,0.00,,,0.00,WUHU216HW,2013-01-20 03:38:00,
2013-01-19 20:40:00,25.4,17.6,30.01,SE,135,0.0,1.6,72,0.00,,,0.00,WUHU216HW,2013-01-20 03:40:00,
2013-01-19 20:43:00,25.2,17.4,30.00,SE,135,0.0,1.6,72,0.00,,,0.00,WUHU216HW,2013-01-20 03:43:00,
2013-01-19 20:45:00,25.2,17.4,30.00,SSW,203,0.2,0.7,72,0.00,,,0.00,WUHU216HW,2013-01-20 03:45:00,
2013-01-19 20:48:00,25.2,17.4,30.00,SSW,203,0.0,0.7,72,0.00,,,0.00,WUHU216HW,2013-01-20 03:48:00,
2013-01-19 20:50:00,25.2,17.7,30.00,SSW,203,0.0,0.7,73,0.00,,,0.00,WUHU216HW,2013-01-20 03:50:00,
2013-01-19 20:53:00,25.0,17.6,30.01,SSW,203,0.2,0.7,73,0.00,,,0.00,WUHU216HW,2013-01-20 03:53:00,
2013-01-19 20:56:00,25.0,17.6,30.01,SSW,203,0.0,0.4,73,0.00,,,0.00,WUHU216HW,2013-01-20 03:56:00,
2013-01-19 20:58:00,24.8,17.4,30.01,SSW,203,0.0,0.4,73,0.00,,,0.00,WUHU216HW,2013-01-20 03:58:00,
2013-01-19 21:01:00,24.8,17.4,30.01,SSW,203,0.0,0.2,73,0.00,,,0.00,WUHU216HW,2013-01-20 04:01:00,
2013-01-19 21:03:00,24.8,17.4,30.01,SSW,203,0.0,0.0,73,0.00,,,0.00,WUHU216HW,2013-01-20 04:03:00,
2013-01-19 21:06:00,24.8,17.4,30.01,SSW,203,0.4,0.4,73,0.00,,,0.00,WUHU216HW,2013-01-20 04:06:00,
2013-01-19 21:08:00,24.8,17.4,30.01,SW,225,0.7,0.7,73,0.00,,,0.00,WUHU216HW,2013-01-20 04:08:00,
2013-01-19 21:11:00,24.8,17.4,30.00,SSW,203,0.9,1.1,73,0.00,,,0.00,WUHU216HW,2013-01-20 04:11:00,
2013-01-19 21:14:00,24.7,17.2,30.00,SW,225,0.9,1.3,73,0.00,,,0.00,WUHU216HW,2013-01-20 04:14:00,
2013-01-19 21:16:00,24.7,17.2,30.00,SSW,203,1.8,1.8,73,0.00,,,0.00,WUHU216HW,2013-01-20 04:16:00,
2013-01-19 21:19:00,24.5,17.0,30.00,SW,225,1.1,1.8,73,0.00,,,0.00,WUHU216HW,2013-01-20 04:19:00,
2013-01-19 21:21:00,24.3,16.8,30.00,SW,225,1.3,1.8,73,0.00,,,0.00,WUHU216HW,2013-01-20 04:21:00,
2013-01-19 21:24:00,24.1,16.7,30.00,SSW,203,1.1,1.8,73,0.00,,,0.00,WUHU216HW,2013-01-20 04:24:00,
2013-01-19 21:26:00,24.1,16.7,30.00,SW,225,1.6,1.8,73,0.00,,,0.00,WUHU216HW,2013-01-20 04:26:00,
2013-01-19 21:29:00,23.9,16.5,30.00,WSW,248,1.6,2.2,73,0.00,,,0.00,WUHU216HW,2013-01-20 04:29:00,
2013-01-19 21:32:00,23.9,16.5,29.99,SW,225,1.8,2.2,73,0.00,,,0.00,WUHU216HW,2013-01-20 04:32:00,
2013-01-19 21:34:00,23.8,16.4,29.99,SW,225,1.8,2.2,73,0.00,,,0.00,WUHU216HW,2013-01-20 04:34:00,
2013-01-19 21:37:00,23.8,16.7,29.99,SW,225,1.3,2.2,74,0.00,,,0.00,WUHU216HW,2013-01-20 04:37:00,
2013-01-19 21:39:00,23.6,16.5,29.99,SSW,203,1.8,1.8,74,0.00,,,0.00,WUHU216HW,2013-01-20 04:39:00,
2013-01-19 21:42:00,23.6,16.5,29.99,SW,225,2.5,2.5,74,0.00,,,0.00,WUHU216HW,2013-01-20 04:42:00,
2013-01-19 21:44:00,23.6,16.5,29.99,SW,225,2.5,2.5,74,0.00,,,0.00,WUHU216HW,2013-01-20 04:44:00,
2013-01-19 21:47:00,23.4,16.3,29.99,SSW,203,1.8,2.5,74,0.00,,,0.00,WUHU216HW,2013-01-20 04:47:00,
2013-01-19 21:49:00,23.4,16.3,29.99,SSW,203,2.2,2.5,74,0.00,,,0.00,WUHU216HW,2013-01-20 04:49:00,
2013-01-19 21:52:00,23.4,16.7,29.99,SW,225,3.1,3.1,75,0.00,,,0.00,WUHU216HW,2013-01-20 04:52:00,
2013-01-19 21:54:00,23.4,16.7,29.99,SSW,203,2.5,3.1,75,0.00,,,0.00,WUHU216HW,2013-01-20 04:54:00,
2013-01-19 21:58:00,23.4,16.7,29.99,West,270,0.4,3.8,75,0.00,,,0.00,WUHU216HW,2013-01-20 04:58:00,
2013-01-19 21:59:00,23.4,16.7,29.99,SW,225,1.1,3.8,75,0.00,,,0.00,WUHU216HW,2013-01-20 04:59:00,
2013-01-19 22:01:00,23.4,16.7,29.99,SW,225,1.1,3.8,75,0.00,,,0.00,WUHU216HW,2013-01-20 05:01:00,
2013-01-19 22:02:00,23.4,16.7,29.99,SSW,203,1.6,3.8,75,0.00,,,0.00,WUHU216HW,2013-01-20 05:02:00,
2013-01-19 22:03:00,23.4,16.7,29.99,SSW,203,1.1,3.8,75,0.00,,,0.00,WUHU216HW,2013-01-20 05:03:00,
2013-01-19 22:06:00,23.4,16.7,29.99,SSW,203,0.9,2.0,75,0.00,,,0.00,WUHU216HW,2013-01-20 05:06:00,
2013-01-19 22:07:00,23.4,16.7,30.00,SSW,203,0.7,1.6,75,0.00,,,0.00,WUHU216HW,2013-01-20 05:07:00,
2013-01-19 22:09:00,23.4,16.9,30.00,WSW,248,0.2,1.6,76,0.00,,,0.00,WUHU216HW,2013-01-20 05:09:00,
2013-01-19 22:11:00,23.4,16.9,30.00,SSW,203,1.1,1.6,76,0.00,,,0.00,WUHU216HW,2013-01-20 05:11:00,
2013-01-19 22:12:00,23.4,16.9,30.00,SSW,203,1.3,1.6,76,0.00,,,0.00,WUHU216HW,2013-01-20 05:12:00,
2013-01-19 22:14:00,23.2,16.7,30.00,South,180,0.4,1.3,76,0.00,,,0.00,WUHU216HW,2013-01-20 05:14:00,
2013-01-19 22:16:00,23.2,16.7,30.00,ESE,113,0.0,1.3,76,0.00,,,0.00,WUHU216HW,2013-01-20 05:16:00,
2013-01-19 22:17:00,23.2,16.7,30.00,ESE,113,0.0,1.3,76,0.00,,,0.00,WUHU216HW,2013-01-20 05:17:00,
2013-01-19 22:19:00,23.4,16.9,30.00,SSE,158,0.0,1.3,76,0.00,,,0.00,WUHU216HW,2013-01-20 05:19:00,
2013-01-19 22:22:00,23.4,16.9,29.99,SSW,203,0.0,1.3,76,0.00,,,0.00,WUHU216HW,2013-01-20 05:22:00,
2013-01-19 22:24:00,23.2,16.7,30.00,SSW,203,0.2,0.9,76,0.00,,,0.00,WUHU216HW,2013-01-20 05:24:00,
2013-01-19 22:27:00,23.2,16.7,29.99,SSW,203,0.0,0.7,76,0.00,,,0.00,WUHU216HW,2013-01-20 05:27:00,
2013-01-19 22:29:00,23.2,16.7,30.00,SSW,203,0.0,0.7,76,0.00,,,0.00,WUHU216HW,2013-01-20 05:29:00,
2013-01-19 22:32:00,23.2,16.7,29.99,SSW,203,0.0,0.7,76,0.00,,,0.00,WUHU216HW,2013-01-20 05:32:00,
2013-01-19 22:34:00,23.2,16.7,29.99,SSW,203,0.0,0.7,76,0.00,,,0.00,WUHU216HW,2013-01-20 05:34:00,
2013-01-19 22:37:00,23.0,16.6,29.99,WSW,248,1.6,2.5,76,0.00,,,0.00,WUHU216HW,2013-01-20 05:37:00,
2013-01-19 22:39:00,23.0,16.6,29.99,WSW,248,1.3,2.5,76,0.00,,,0.00,WUHU216HW,2013-01-20 05:39:00,
2013-01-19 22:42:00,22.9,16.4,29.99,SW,225,2.5,2.9,76,0.00,,,0.00,WUHU216HW,2013-01-20 05:42:00,
2013-01-19 22:43:00,22.9,16.4,29.99,SW,225,2.5,2.9,76,0.00,,,0.00,WUHU216HW,2013-01-20 05:43:00,
2013-01-19 22:44:00,22.9,16.8,29.99,SW,225,2.2,2.9,77,0.00,,,0.00,WUHU216HW,2013-01-20 05:44:00,
2013-01-19 22:47:00,23.0,16.9,29.98,West,270,2.5,2.9,77,0.00,,,0.00,WUHU216HW,2013-01-20 05:47:00,
2013-01-19 22:48:00,23.0,16.9,29.98,West,270,2.5,2.9,77,0.00,,,0.00,WUHU216HW,2013-01-20 05:48:00,
2013-01-19 22:50:00,23.0,16.9,29.99,SW,225,0.9,2.9,77,0.00,,,0.00,WUHU216HW,2013-01-20 05:50:00,
2013-01-19 22:52:00,23.2,17.1,29.98,SSW,203,2.0,2.5,77,0.00,,,0.00,WUHU216HW,2013-01-20 05:52:00,
2013-01-19 22:53:00,23.2,17.1,29.98,SSW,203,2.0,2.5,77,0.00,,,0.00,WUHU216HW,2013-01-20 05:53:00,
2013-01-19 22:55:00,23.4,17.3,29.99,WSW,248,1.1,2.5,77,0.00,,,0.00,WUHU216HW,2013-01-20 05:55:00,
2013-01-19 22:57:00,23.4,17.3,29.99,SW,225,2.9,2.9,77,0.00,,,0.00,WUHU216HW,2013-01-20 05:57:00,
2013-01-19 22:58:00,23.4,17.3,29.99,SW,225,2.9,2.9,77,0.00,,,0.00,WUHU216HW,2013-01-20 05:58:00,
2013-01-19 23:00:00,23.6,17.5,29.99,SW,225,2.2,3.1,77,0.00,,,0.00,WUHU216HW,2013-01-20 06:00:00,
2013-01-19 23:02:00,23.6,17.5,29.99,SW,225,1.6,3.1,77,0.00,,,0.00,WUHU216HW,2013-01-20 06:02:00,
2013-01-19 23:03:00,23.6,17.5,29.99,SSW,203,1.6,3.1,77,0.00,,,0.00,WUHU216HW,2013-01-20 06:03:00,
2013-01-19 23:05:00,23.8,17.7,29.99,WSW,248,1.8,3.1,77,0.00,,,0.00,WUHU216HW,2013-01-20 06:05:00,
2013-01-19 23:07:00,23.8,17.7,29.99,WSW,248,3.4,3.4,77,0.00,,,0.00,WUHU216HW,2013-01-20 06:07:00,
2013-01-19 23:08:00,23.9,18.1,29.99,SW,225,1.8,3.4,78,0.00,,,0.00,WUHU216HW,2013-01-20 06:08:00,
2013-01-19 23:10:00,23.9,18.1,29.99,WSW,248,1.8,3.4,78,0.00,,,0.00,WUHU216HW,2013-01-20 06:10:00,
2013-01-19 23:13:00,24.1,18.3,29.99,SW,225,1.8,3.4,78,0.00,,,0.00,WUHU216HW,2013-01-20 06:13:00,
2013-01-19 23:15:00,24.1,18.3,29.99,SW,225,1.8,3.4,78,0.00,,,0.00,WUHU216HW,2013-01-20 06:15:00,
2013-01-19 23:18:00,24.1,18.3,29.99,WSW,248,1.3,2.5,78,0.00,,,0.00,WUHU216HW,2013-01-20 06:18:00,
2013-01-19 23:19:00,24.1,18.3,29.99,WSW,248,1.3,2.5,78,0.00,,,0.00,WUHU216HW,2013-01-20 06:19:00,
2013-01-19 23:21:00,24.1,18.3,29.99,WSW,248,1.3,2.2,78,0.00,,,0.00,WUHU216HW,2013-01-20 06:21:00,
2013-01-19 23:23:00,24.3,18.5,29.99,SSW,203,1.1,2.5,78,0.00,,,0.00,WUHU216HW,2013-01-20 06:23:00,
2013-01-19 23:24:00,24.3,18.5,29.99,SSW,203,1.1,2.5,78,0.00,,,0.00,WUHU216HW,2013-01-20 06:24:00,
2013-01-19 23:26:00,24.3,18.5,29.99,SW,225,1.8,2.5,78,0.00,,,0.00,WUHU216HW,2013-01-20 06:26:00,
2013-01-19 23:28:00,24.3,18.1,29.99,SSW,203,1.8,2.5,77,0.00,,,0.00,WUHU216HW,2013-01-20 06:28:00,
2013-01-19 23:29:00,24.3,18.1,29.99,SSW,203,1.8,2.5,77,0.00,,,0.00,WUHU216HW,2013-01-20 06:29:00,
2013-01-19 23:31:00,24.5,18.6,29.99,SW,225,2.5,2.5,78,0.00,,,0.00,WUHU216HW,2013-01-20 06:31:00,
2013-01-19 23:33:00,24.5,18.6,29.99,SSW,203,1.1,2.7,78,0.00,,,0.00,WUHU216HW,2013-01-20 06:33:00,
2013-01-19 23:34:00,24.5,18.6,29.99,SSW,203,1.1,2.7,78,0.00,,,0.00,WUHU216HW,2013-01-20 06:34:00,
2013-01-19 23:36:00,24.7,18.8,29.99,SW,225,3.4,3.4,78,0.00,,,0.00,WUHU216HW,2013-01-20 06:36:00,
2013-01-19 23:38:00,24.8,18.6,29.99,SW,225,0.4,3.4,77,0.00,,,0.00,WUHU216HW,2013-01-20 06:38:00,
2013-01-19 23:39:00,24.8,18.6,29.99,SW,225,0.4,3.4,77,0.00,,,0.00,WUHU216HW,2013-01-20 06:39:00,
2013-01-19 23:41:00,24.8,18.6,29.99,SW,225,1.1,3.4,77,0.00,,,0.00,WUHU216HW,2013-01-20 06:41:00,
2013-01-19 23:43:00,25.0,18.8,29.99,WSW,248,1.6,3.4,77,0.00,,,0.00,WUHU216HW,2013-01-20 06:43:00,
2013-01-19 23:44:00,25.0,18.8,29.99,WSW,248,1.6,3.4,77,0.00,,,0.00,WUHU216HW,2013-01-20 06:44:00,
2013-01-19 23:47:00,25.2,19.0,29.99,North,0,0.7,3.6,77,0.00,,,0.00,WUHU216HW,2013-01-20 06:47:00,
2013-01-19 23:48:00,25.6,19.4,29.99,NNW,338,0.7,3.6,77,0.00,,,0.00,WUHU216HW,2013-01-20 06:48:00,
2013-01-19 23:49:00,25.6,19.4,29.99,NNW,338,0.7,3.6,77,0.00,,,0.00,WUHU216HW,2013-01-20 06:49:00,
2013-01-19 23:52:00,25.6,19.4,29.99,West,270,3.4,3.6,77,0.00,,,0.00,WUHU216HW,2013-01-20 06:52:00,
2013-01-19 23:54:00,25.9,19.4,29.99,WSW,248,4.0,4.0,76,0.00,,,0.00,WUHU216HW,2013-01-20 06:54:00,
2013-01-19 23:57:00,26.3,19.7,29.99,West,270,2.2,4.0,76,0.00,,,0.00,WUHU216HW,2013-01-20 06:57:00,
2013-01-19 23:59:00,26.5,19.9,29.99,WNW,293,1.1,5.4,76,0.00,,,0.00,WUHU216HW,2013-01-20 06:59:00,